[[{"header":{"parameterUnit":"m.s-1","parameterCategory":1,"la1":30.6,"la2":29.2853,"lo1":-89.7004,"lo2":-87.6739,"dx":0.0162,"dy":0.0183,"nx":112,"ny":82,"refTime":"2023-01-22T18:00:00:Z","depth":0,"parameterNumber":2,"parameterNumberName":"U-component_of_WINDS"},"data":[0.0,0.0,0.0,0.0,0.0,0.0,0.0,0.0,0.0,0.0,0.0,0.0,0.0,0.0,0.0,0.0,0.0,0.0,0.0,0.0,0.0,0.0,0.0,0.0,0.0,0.0,0.0,0.0,0.0,0.0,0.0,0.0,0.0,0.0,0.0,0.0,0.0,0.0,0.0,0.0,0.0,0.0,0.0,0.0,0.0,0.0,0.0,0.0,0.0,0.0,0.0,0.0,0.0,0.0,0.0,0.0,0.0,0.0,0.0,0.0,0.0,0.0,0.0,0.0,0.0,0.0,0.0,0.0,0.0,0.0,0.0,0.0,0.0,0.0,0.0,0.0,0.0,0.0,0.0,0.0,0.0,0.0,0.0,0.0,0.0,0.0,0.0,0.0,0.0,0.0,0.0,4.146,4.6713,5.024,5.0668,4.9456,4.6244,4.0554,0.0,0.0,0.0,0.0,0.0,0.0,0.0,0.0,0.0,0.0,0.0,0.0,0.0,0.0,0.0,0.0,0.0,0.0,0.0,0.0,0.0,0.0,0.0,0.0,0.0,0.0,0.0,0.0,0.0,0.0,0.0,0.0,0.0,0.0,0.0,0.0,0.0,0.0,0.0,0.0,0.0,0.0,0.0,0.0,0.0,0.0,0.0,0.0,0.0,0.0,0.0,0.0,0.0,0.0,0.0,0.0,0.0,0.0,0.0,0.0,0.0,0.0,0.0,0.0,0.0,0.0,0.0,0.0,0.0,0.0,0.0,0.0,0.0,0.0,0.0,0.0,0.0,0.0,0.0,0.0,0.0,0.0,0.0,0.0,0.0,0.0,0.0,0.0,0.0,0.0,0.0,0.0,0.0,0.0,0.0,0.0,0.0,0.0,0.0,0.0,0.0,0.0,0.0,0.0,3.911,4.5438,4.7951,4.9601,5.0596,4.8447,4.511,4.0495,0.0,0.0,0.0,0.0,0.0,0.0,0.0,0.0,0.0,0.0,0.0,0.0,0.0,0.0,0.0,0.0,0.0,0.0,0.0,0.0,0.0,0.0,0.0,0.0,0.0,0.0,0.0,0.0,0.0,0.0,0.0,0.0,0.0,0.0,0.0,0.0,0.0,0.0,0.0,0.0,0.0,0.0,0.0,0.0,0.0,0.0,0.0,0.0,0.0,0.0,0.0,0.0,0.0,0.0,0.0,0.0,0.0,0.0,0.0,0.0,0.0,0.0,0.0,0.0,0.0,0.0,0.0,0.0,0.0,0.0,0.0,0.0,0.0,0.0,0.0,0.0,0.0,0.0,0.0,0.0,0.0,0.0,0.0,0.0,0.0,0.0,0.0,0.0,0.0,0.0,0.0,0.0,0.0,0.0,0.0,0.0,0.0,0.0,0.0,0.0,0.0,0.0,0.0,3.7778,4.0721,4.5836,4.7592,4.8841,4.9904,4.7905,4.4744,4.0484,3.8717,0.0,0.0,0.0,0.0,0.0,0.0,0.0,0.0,0.0,0.0,0.0,0.0,0.0,0.0,0.0,0.0,0.0,0.0,0.0,0.0,0.0,0.0,0.0,0.0,0.0,0.0,0.0,0.0,0.0,0.0,0.0,0.0,0.0,0.0,0.0,0.0,0.0,0.0,0.0,0.0,0.0,0.0,0.0,0.0,0.0,0.0,0.0,0.0,0.0,0.0,0.0,0.0,0.0,0.0,0.0,0.0,0.0,0.0,0.0,0.0,0.0,0.0,0.0,0.0,0.0,0.0,0.0,0.0,0.0,0.0,0.0,0.0,0.0,0.0,0.0,0.0,0.0,0.0,0.0,0.0,0.0,0.0,0.0,0.0,0.0,0.0,0.0,0.0,0.0,0.0,0.0,0.0,0.0,0.0,0.0,0.0,0.0,0.0,0.0,0.0,0.0,0.0,4.0344,4.2931,4.5511,4.6891,4.8009,4.9014,4.6967,4.3999,4.0139,3.7859,0.0,0.0,0.0,0.0,0.0,0.0,0.0,0.0,0.0,0.0,0.0,0.0,0.0,0.0,0.0,0.0,0.0,0.0,0.0,0.0,0.0,0.0,0.0,0.0,0.0,0.0,0.0,0.0,0.0,0.0,0.0,0.0,0.0,0.0,0.0,0.0,0.0,0.0,0.0,0.0,0.0,0.0,0.0,0.0,0.0,0.0,0.0,0.0,0.0,0.0,0.0,0.0,0.0,0.0,0.0,0.0,0.0,0.0,0.0,0.0,0.0,0.0,0.0,0.0,0.0,0.0,0.0,0.0,0.0,0.0,0.0,0.0,0.0,0.0,0.0,0.0,0.0,0.0,0.0,0.0,0.0,0.0,0.0,0.0,0.0,0.0,0.0,0.0,0.0,0.0,0.0,0.0,0.0,0.0,0.0,0.0,0.0,0.0,0.0,0.0,0.0,0.0,4.1635,4.5406,4.5768,4.6401,4.7165,4.8115,4.5041,4.192,3.9161,3.6341,0.0,0.0,0.0,0.0,0.0,0.0,0.0,0.0,0.0,0.0,0.0,0.0,0.0,0.0,0.0,0.0,0.0,0.0,0.0,0.0,0.0,0.0,0.0,0.0,0.0,0.0,0.0,0.0,0.0,0.0,0.0,0.0,0.0,0.0,0.0,0.0,0.0,0.0,0.0,0.0,0.0,0.0,0.0,0.0,0.0,0.0,0.0,0.0,0.0,0.0,0.0,0.0,0.0,0.0,0.0,0.0,0.0,0.0,0.0,0.0,0.0,0.0,0.0,0.0,0.0,0.0,0.0,0.0,0.0,0.0,0.0,0.0,0.0,0.0,0.0,0.0,0.0,0.0,0.0,0.0,0.0,0.0,0.0,0.0,0.0,0.0,0.0,0.0,0.0,0.0,0.0,0.0,0.0,0.0,0.0,0.0,0.0,0.0,0.0,0.0,0.0,0.0,4.0785,4.3849,0.0,4.5628,4.6391,4.7269,4.4993,4.2216,3.908,0.0,0.0,0.0,0.0,0.0,0.0,0.0,0.0,0.0,0.0,0.0,0.0,0.0,0.0,0.0,0.0,0.0,0.0,0.0,0.0,0.0,0.0,0.0,0.0,0.0,0.0,0.0,0.0,0.0,0.0,0.0,0.0,0.0,0.0,0.0,0.0,0.0,0.0,0.0,0.0,0.0,0.0,0.0,0.0,0.0,0.0,0.0,0.0,0.0,0.0,0.0,0.0,0.0,0.0,0.0,0.0,0.0,0.0,0.0,0.0,0.0,0.0,0.0,0.0,0.0,0.0,0.0,0.0,0.0,0.0,0.0,0.0,0.0,0.0,0.0,0.0,0.0,0.0,0.0,0.0,0.0,0.0,0.0,0.0,0.0,0.0,0.0,0.0,0.0,0.0,0.0,0.0,0.0,0.0,0.0,0.0,0.0,0.0,0.0,0.0,0.0,0.0,3.7345,4.0646,4.3322,0.0,4.5206,4.579,4.6428,4.4456,4.1872,3.8694,0.0,0.0,0.0,0.0,0.0,0.0,0.0,0.0,0.0,0.0,0.0,0.0,0.0,0.0,0.0,0.0,0.0,0.0,0.0,0.0,0.0,0.0,0.0,0.0,0.0,0.0,0.0,0.0,0.0,0.0,0.0,0.0,0.0,0.0,0.0,0.0,0.0,0.0,0.0,0.0,0.0,0.0,0.0,0.0,0.0,0.0,0.0,0.0,0.0,0.0,0.0,0.0,0.0,0.0,0.0,0.0,0.0,0.0,0.0,0.0,0.0,0.0,0.0,0.0,0.0,0.0,0.0,0.0,0.0,0.0,0.0,0.0,0.0,0.0,0.0,0.0,0.0,0.0,0.0,0.0,0.0,0.0,0.0,0.0,0.0,0.0,0.0,0.0,0.0,0.0,0.0,0.0,0.0,0.0,0.0,0.0,0.0,0.0,0.0,0.0,0.0,0.0,3.7687,4.1686,4.4526,4.4855,4.5201,4.5448,4.5586,4.309,4.0387,0.0,0.0,0.0,0.0,0.0,0.0,0.0,0.0,0.0,0.0,0.0,0.0,0.0,0.0,0.0,0.0,0.0,0.0,0.0,0.0,0.0,0.0,0.0,0.0,0.0,0.0,0.0,0.0,0.0,0.0,0.0,0.0,0.0,0.0,0.0,0.0,0.0,0.0,0.0,0.0,0.0,0.0,0.0,0.0,0.0,0.0,0.0,0.0,0.0,0.0,0.0,0.0,0.0,0.0,0.0,0.0,0.0,0.0,0.0,0.0,0.0,0.0,0.0,0.0,0.0,0.0,0.0,0.0,0.0,0.0,0.0,0.0,0.0,0.0,0.0,0.0,0.0,0.0,0.0,0.0,0.0,0.0,0.0,0.0,0.0,0.0,0.0,0.0,0.0,0.0,0.0,0.0,0.0,0.0,0.0,0.0,0.0,0.0,0.0,0.0,0.0,0.0,0.0,3.8428,4.2023,4.4526,4.4855,4.5201,4.5448,4.5586,4.3682,4.1106,3.7811,0.0,0.0,0.0,0.0,0.0,0.0,0.0,0.0,0.0,0.0,0.0,0.0,0.0,0.0,0.0,0.0,0.0,0.0,0.0,0.0,0.0,0.0,0.0,0.0,0.0,0.0,0.0,0.0,0.0,0.0,0.0,0.0,0.0,0.0,0.0,0.0,0.0,0.0,0.0,0.0,0.0,0.0,0.0,0.0,0.0,0.0,0.0,0.0,0.0,0.0,0.0,0.0,0.0,0.0,0.0,0.0,0.0,0.0,0.0,0.0,0.0,0.0,0.0,0.0,0.0,0.0,0.0,0.0,0.0,0.0,0.0,0.0,0.0,0.0,0.0,0.0,0.0,0.0,0.0,0.0,0.0,0.0,0.0,0.0,0.0,0.0,0.0,0.0,0.0,0.0,0.0,0.0,0.0,0.0,0.0,0.0,0.0,0.0,0.0,0.0,0.0,0.0,3.8725,4.181,4.4247,4.5322,4.5666,4.5903,4.6115,4.4468,4.1755,3.7877,0.0,0.0,0.0,0.0,0.0,0.0,0.0,0.0,0.0,0.0,0.0,0.0,0.0,0.0,0.0,0.0,0.0,0.0,0.0,0.0,0.0,0.0,0.0,0.0,0.0,0.0,0.0,0.0,0.0,0.0,0.0,0.0,0.0,0.0,0.0,0.0,0.0,0.0,0.0,0.0,0.0,0.0,0.0,0.0,0.0,0.0,0.0,0.0,0.0,0.0,0.0,0.0,0.0,0.0,0.0,0.0,0.0,0.0,0.0,0.0,0.0,0.0,0.0,0.0,0.0,0.0,0.0,0.0,0.0,0.0,0.0,0.0,0.0,0.0,0.0,0.0,0.0,0.0,0.0,0.0,0.0,0.0,0.0,0.0,0.0,0.0,0.0,0.0,0.0,0.0,0.0,0.0,0.0,0.0,0.0,0.0,0.0,0.0,0.0,0.0,0.0,0.0,3.8651,4.136,4.3782,4.5853,4.626,4.6485,4.676,4.5197,4.242,3.8218,0.0,0.0,0.0,0.0,0.0,0.0,0.0,0.0,0.0,0.0,0.0,0.0,0.0,0.0,0.0,0.0,0.0,0.0,0.0,0.0,0.0,0.0,0.0,0.0,0.0,0.0,0.0,0.0,0.0,0.0,0.0,0.0,0.0,0.0,0.0,0.0,0.0,0.0,0.0,0.0,0.0,0.0,0.0,0.0,0.0,0.0,0.0,0.0,0.0,0.0,0.0,0.0,0.0,0.0,0.0,0.0,0.0,0.0,0.0,0.0,3.2356,0.0,0.0,0.0,0.0,0.0,0.0,0.0,0.0,0.0,0.0,0.0,0.0,0.0,0.0,0.0,0.0,0.0,0.0,0.0,0.0,0.0,0.0,0.0,0.0,0.0,0.0,0.0,0.0,0.0,0.0,0.0,0.0,0.0,0.0,0.0,0.0,0.0,0.0,0.0,0.0,0.0,3.8651,4.136,4.355,4.5006,4.541,4.5643,4.5842,4.4847,4.2905,3.9852,0.0,0.0,0.0,0.0,0.0,0.0,0.0,0.0,0.0,0.0,0.0,0.0,0.0,0.0,0.0,0.0,0.0,0.0,0.0,0.0,0.0,0.0,0.0,0.0,0.0,0.0,0.0,0.0,0.0,0.0,0.0,0.0,0.0,0.0,0.0,0.0,0.0,0.0,0.0,0.0,0.0,0.0,0.0,0.0,0.0,0.0,0.0,0.0,0.0,0.0,0.0,0.0,0.0,0.0,0.0,0.0,0.0,0.0,0.0,0.0,0.0,3.3236,0.0,0.0,0.0,0.0,0.0,0.0,0.0,0.0,0.0,0.0,0.0,0.0,0.0,0.0,0.0,0.0,0.0,0.0,0.0,0.0,0.0,0.0,0.0,0.0,0.0,0.0,0.0,0.0,0.0,0.0,0.0,0.0,0.0,0.0,0.0,0.0,0.0,0.0,0.0,0.0,3.8589,4.1281,4.3584,4.5174,4.6045,4.6447,4.6226,4.5772,4.3995,4.0482,3.8837,0.0,0.0,0.0,0.0,0.0,0.0,0.0,0.0,0.0,0.0,0.0,0.0,0.0,0.0,0.0,0.0,0.0,0.0,0.0,0.0,0.0,0.0,0.0,0.0,0.0,0.0,0.0,0.0,0.0,0.0,0.0,0.0,0.0,0.0,0.0,0.0,0.0,0.0,0.0,0.0,0.0,0.0,0.0,0.0,0.0,0.0,0.0,0.0,0.0,0.0,0.0,0.0,0.0,3.6427,3.744,3.786,3.8455,3.9201,3.9829,3.7178,3.684,3.7855,0.0,0.0,0.0,0.0,0.0,0.0,0.0,0.0,0.0,0.0,0.0,0.0,0.0,0.0,0.0,0.0,0.0,0.0,0.0,0.0,0.0,0.0,0.0,0.0,0.0,3.7938,3.8751,0.0,0.0,0.0,0.0,0.0,0.0,0.0,0.0,0.0,0.0,0.0,0.0,3.8689,4.1341,4.3758,4.5611,4.6739,4.7267,4.6914,4.676,4.4996,4.1193,3.9908,3.7828,0.0,0.0,0.0,0.0,0.0,0.0,0.0,0.0,0.0,0.0,0.0,0.0,0.0,0.0,0.0,0.0,0.0,0.0,0.0,0.0,0.0,0.0,0.0,0.0,0.0,0.0,0.0,0.0,0.0,0.0,0.0,0.0,3.1048,3.1026,0.0,0.0,0.0,0.0,0.0,0.0,0.0,0.0,0.0,0.0,0.0,0.0,0.0,3.572,3.6215,3.8011,3.8621,3.8,4.0801,4.2078,4.1936,4.2036,4.2727,4.3789,4.2679,0.0,3.8768,3.7618,0.0,0.0,0.0,0.0,0.0,0.0,0.0,0.0,0.0,0.0,0.0,0.0,0.0,0.0,0.0,0.0,0.0,0.0,0.0,0.0,0.0,0.0,4.0825,4.0238,4.115,4.1947,0.0,3.8307,3.5712,3.4609,3.4031,0.0,0.0,0.0,0.0,0.0,0.0,0.0,3.9431,4.1741,4.3843,4.5617,4.5742,4.6043,4.6842,4.6085,4.4993,4.3616,4.2616,4.1098,3.8945,3.6573,0.0,0.0,0.0,0.0,0.0,0.0,0.0,0.0,0.0,0.0,0.0,0.0,0.0,0.0,0.0,0.0,0.0,0.0,0.0,0.0,0.0,0.0,0.0,0.0,0.0,0.0,0.0,0.0,0.0,2.7251,2.8621,2.962,3.0024,2.9967,0.0,0.0,0.0,0.0,0.0,0.0,0.0,0.0,0.0,3.5734,3.6882,3.7707,3.8209,3.9779,4.0418,4.0142,4.1902,4.2796,4.2936,4.32,4.3633,4.415,4.4103,4.3349,4.2029,4.0426,3.8667,3.6851,0.0,0.0,0.0,0.0,3.3274,3.3516,3.5106,3.5716,0.0,0.0,0.0,0.0,0.0,0.0,0.0,0.0,0.0,0.0,0.0,0.0,0.0,4.1614,4.272,4.3484,4.2364,4.1124,3.9771,0.0,3.7591,3.6673,3.4635,0.0,0.0,0.0,0.0,0.0,3.9761,4.2239,4.4195,4.5051,4.5715,4.6134,4.6158,4.6148,4.5514,4.407,4.3455,4.2264,4.0432,3.8558,3.693,0.0,0.0,0.0,0.0,0.0,0.0,0.0,0.0,0.0,0.0,0.0,0.0,0.0,0.0,0.0,0.0,0.0,0.0,0.0,0.0,0.0,0.0,0.0,0.0,0.0,0.0,0.0,0.0,2.6469,2.7536,2.8824,3.01,3.0512,0.0,0.0,0.0,0.0,0.0,0.0,3.4495,3.5121,3.5971,3.7095,3.8599,3.9589,4.0045,4.0894,4.1325,4.1389,4.1917,4.2444,4.2944,4.3416,4.3699,4.3831,4.4369,4.4615,4.4432,4.2354,4.073,3.9411,3.7769,3.6443,3.5408,3.5812,3.5858,3.5893,3.7584,3.8193,3.8125,3.7765,0.0,3.6784,3.5284,0.0,0.0,0.0,0.0,3.914,4.0764,4.1339,4.1576,4.1914,4.3179,4.3992,4.2828,4.2861,4.2665,0.0,4.0608,3.9546,3.6999,0.0,0.0,0.0,0.0,4.0267,4.0495,4.2827,4.4568,4.4863,4.6009,4.6609,4.6238,4.6518,4.6112,4.4678,4.4171,4.3237,4.1668,4.0378,3.8961,3.7301,0.0,0.0,0.0,0.0,0.0,0.0,0.0,0.0,0.0,0.0,0.0,0.0,0.0,0.0,0.0,0.0,0.0,0.0,0.0,0.0,0.0,0.0,0.0,0.0,0.0,0.0,0.0,0.0,0.0,3.0266,3.2811,0.0,0.0,0.0,0.0,3.3411,3.3441,3.4041,3.536,3.6734,3.8383,4.0403,4.1158,4.1897,4.2597,4.1925,4.1575,4.1575,4.1606,4.1916,4.2444,4.2929,4.3386,4.3831,4.4369,4.4615,4.4479,4.2909,4.1779,4.0881,3.8897,3.7982,3.766,3.719,3.7781,3.878,3.8903,3.8937,3.9051,3.9728,3.8983,3.7956,3.8531,3.8294,0.0,0.0,4.0472,4.1068,4.117,4.1711,4.2083,4.1407,4.2374,4.3457,4.3355,4.2828,4.2333,0.0,4.161,4.0714,3.935,0.0,3.9084,3.8538,3.9918,4.1323,4.2066,4.3587,4.4907,4.5668,4.6424,4.7112,4.7739,4.7121,4.6531,4.6191,4.5439,4.4583,4.3619,4.2351,4.0857,3.9206,3.6941,0.0,0.0,0.0,0.0,0.0,0.0,0.0,0.0,0.0,0.0,0.0,0.0,0.0,0.0,0.0,0.0,0.0,0.0,0.0,0.0,0.0,0.0,0.0,0.0,0.0,0.0,0.0,0.0,3.0112,3.2307,0.0,3.1771,3.26,3.3559,3.4282,3.477,3.5906,3.7906,3.8322,3.9217,4.0775,4.1115,4.1817,4.2987,4.2074,4.1858,4.23,4.1826,4.1703,4.1916,4.2743,4.3204,4.3386,4.3875,4.4078,4.4049,4.3628,4.2941,4.2094,4.1394,4.0564,3.9857,3.9946,4.0085,4.0196,4.0067,3.9807,3.9401,3.8752,3.8056,3.7589,3.8338,3.8908,3.9626,4.1115,4.1339,4.1375,4.2064,4.2267,4.2165,4.1647,4.2873,4.4045,4.3524,4.3606,4.3789,4.3789,4.2388,4.0912,3.996,4.0411,4.0353,3.8741,4.0446,4.2176,4.2955,4.396,4.4907,4.5717,4.5895,4.6014,4.6282,4.5742,4.5449,4.5521,4.5059,4.4449,4.3733,4.2483,4.102,3.9331,3.7741,3.6011,0.0,0.0,0.0,0.0,0.0,0.0,0.0,0.0,0.0,0.0,0.0,0.0,0.0,0.0,0.0,0.0,0.0,0.0,0.0,0.0,0.0,0.0,0.0,0.0,0.0,0.0,3.0139,2.9961,3.2483,3.3588,3.1961,3.3587,3.5019,3.5758,3.6441,3.7574,3.9324,3.9432,3.9828,4.0703,4.0883,4.148,4.2559,4.1804,4.1742,4.2315,4.1826,4.1605,4.1621,4.2492,4.2867,4.2898,4.3371,4.3565,4.3583,4.3727,4.3287,4.2616,4.2864,4.2548,4.1936,4.1577,4.1486,4.1426,4.0818,4.0095,3.9364,3.8644,3.8262,3.8235,3.9123,4.0153,4.1197,4.2173,4.226,4.2151,4.2446,4.2492,4.2293,4.1802,4.2951,4.4045,4.3524,4.3809,4.4296,4.4547,4.3166,4.18,4.1279,4.154,4.1378,4.0126,4.1592,4.3103,4.381,4.4682,4.5348,4.5765,4.5943,4.5974,4.5801,4.5434,4.5198,4.5033,4.455,4.3951,4.3278,4.2359,4.121,3.9779,3.8184,3.6325,3.4205,0.0,0.0,0.0,0.0,0.0,0.0,0.0,0.0,0.0,0.0,0.0,0.0,0.0,0.0,0.0,0.0,0.0,0.0,0.0,0.0,0.0,0.0,0.0,2.8025,3.0016,3.1039,3.0055,3.3685,3.5442,3.3285,3.596,3.78,3.7782,3.8201,3.8741,3.9329,3.9902,4.0256,4.0412,4.0683,4.1089,4.1563,4.1258,4.1288,4.1637,4.1605,4.1605,4.1621,4.2142,4.2381,4.2445,4.2882,4.3082,4.3067,4.3067,4.2822,4.2478,4.3105,4.3638,4.3791,4.1912,4.1805,4.2394,4.1012,3.9729,3.885,3.9519,3.9748,3.9996,4.1191,4.2062,4.2641,4.2689,4.3174,4.347,4.2285,4.2323,4.2504,4.1777,4.2506,4.3389,4.3389,4.3389,4.3626,4.4432,4.3944,4.3389,4.3389,4.2732,4.2358,4.2858,4.3514,0.0,4.4674,4.5707,4.6231,4.5838,4.6733,4.7128,4.6517,4.63,4.5828,4.492,4.4051,4.3207,4.2439,4.2115,4.1501,4.0558,3.8294,3.6438,3.5082,0.0,0.0,0.0,0.0,0.0,0.0,0.0,0.0,0.0,0.0,0.0,0.0,0.0,0.0,0.0,0.0,0.0,0.0,0.0,0.0,0.0,0.0,2.7315,2.8897,3.0674,3.221,3.3229,3.4746,3.5483,3.4873,3.5647,3.6311,3.6687,3.6353,3.671,3.8092,3.7804,3.8447,4.0325,3.9837,4.0615,4.2947,4.1707,4.1555,4.2395,4.1858,4.1605,4.1621,4.2142,4.2381,4.2429,4.2523,4.2444,4.2206,4.2621,4.2547,4.2214,4.2542,4.2527,4.2236,4.1789,4.0991,4.0031,3.9064,3.8016,3.7285,3.8237,3.8756,3.9201,4.0383,4.12,4.1885,4.2407,4.2324,4.197,4.1597,4.2088,4.2432,4.136,4.225,4.3389,4.3389,4.3389,4.3626,4.4432,4.3944,4.3389,4.3389,4.3731,4.3931,4.3774,4.4442,0.0,4.5508,4.604,4.6229,4.5697,4.6046,4.6108,4.5517,4.4643,4.4109,4.4036,4.3095,4.2473,4.2401,4.1649,4.0652,3.9449,3.8103,3.713,0.0,0.0,0.0,0.0,0.0,0.0,0.0,0.0,0.0,0.0,0.0,0.0,0.0,0.0,0.0,0.0,0.0,0.0,0.0,0.0,0.0,0.0,2.5849,2.7811,2.9324,3.1036,3.2528,3.3569,3.4384,3.4817,3.4691,3.5099,3.564,3.6243,3.6278,3.6713,3.7648,3.7488,3.8186,3.9975,3.9222,4.0056,4.2639,4.1457,4.1324,4.2237,4.1795,4.1522,4.139,4.1703,4.1753,0.0,4.1605,4.1458,4.129,4.1628,4.1474,0.0,0.0,0.0,0.0,0.0,4.0195,3.8824,3.8294,3.7406,3.6662,3.7538,3.818,3.8842,3.9988,4.0798,4.1422,4.1837,4.1646,4.1247,4.1037,4.1626,4.2206,4.1692,4.2587,4.3625,4.3869,4.391,4.4045,4.4499,4.4228,0.0,4.391,4.3897,4.4004,4.4482,4.5129,4.5764,4.6323,4.6872,4.7011,4.6523,4.6248,4.5895,4.5475,4.4429,0.0,0.0,0.0,4.2479,4.1874,4.0822,0.0,0.0,0.0,3.7814,3.7436,0.0,0.0,0.0,3.7245,3.7386,0.0,0.0,0.0,0.0,0.0,0.0,0.0,0.0,0.0,0.0,0.0,0.0,0.0,0.0,0.0,0.0,2.6706,2.8394,2.932,3.0899,3.2026,3.2274,3.3395,3.4025,3.372,3.4679,3.5612,3.6253,3.7134,3.7584,3.7528,0.0,0.0,0.0,0.0,3.9456,4.1471,4.0905,4.0962,4.1605,4.1555,4.139,4.1088,4.1038,4.0817,4.0505,4.0505,4.0487,4.0453,4.0413,4.003,3.9585,4.1103,4.1735,4.1593,4.0468,3.9378,3.8459,3.8169,0.0,0.0,3.7295,3.7926,3.8649,3.9812,4.0583,4.1079,4.1079,4.1016,4.0853,4.0488,4.0999,4.1757,4.2153,4.2974,4.3771,4.4353,4.4465,4.4499,4.4567,4.4615,4.4615,4.4615,4.3727,4.3589,4.5106,4.5742,4.6275,4.7018,4.7783,4.8062,4.7458,0.0,0.0,4.5741,4.4869,4.4174,4.3691,4.3629,4.2892,4.1315,4.0246,3.949,3.9023,3.8884,3.8585,3.8023,3.8311,3.845,3.846,3.8238,3.8324,0.0,0.0,0.0,0.0,0.0,0.0,0.0,0.0,0.0,0.0,0.0,0.0,0.0,0.0,0.0,2.4493,2.6348,2.7993,2.8615,2.9306,3.0363,3.2099,3.3883,3.4945,3.4872,3.5665,3.6237,3.6371,3.6415,3.6436,3.6393,3.6287,3.7,3.871,3.8664,3.9513,4.1471,4.1366,4.141,4.1605,0.0,0.0,4.1088,4.0749,4.056,4.0505,4.0505,4.0349,4.0073,3.9804,3.9464,3.9089,3.9154,3.9367,3.9511,3.8719,3.8436,3.831,3.7515,3.6914,3.6618,3.734,3.7794,3.8244,3.9073,3.9744,0.0,4.0213,3.9833,3.9474,3.9661,4.0132,4.0626,4.0767,4.1678,4.2711,4.3488,4.3626,4.3809,4.4465,4.4615,4.4615,4.4615,4.4981,4.5468,4.6059,4.6862,4.7331,4.7139,4.7783,4.762,4.5794,4.6008,4.5828,4.4646,4.3909,4.3483,4.3384,4.3567,4.3229,4.22,4.2256,4.1654,4.0282,3.9874,3.9593,3.9492,3.9329,3.9366,3.9573,3.9035,3.8789,0.0,0.0,0.0,0.0,0.0,0.0,0.0,0.0,0.0,0.0,0.0,2.0664,0.0,0.0,2.4716,2.6126,2.7266,2.8153,2.8635,2.892,2.9504,3.0576,3.2068,3.3203,3.37,3.463,3.5523,3.6334,3.645,3.637,3.6109,3.6433,3.7195,3.8517,3.8226,3.9054,4.1168,4.0577,4.0537,4.1055,4.0868,4.0698,4.0539,4.0331,4.0139,3.9963,3.9963,3.9857,3.9666,3.9152,3.8862,3.8663,3.8139,3.8451,3.9063,3.8086,3.7768,3.7721,3.6646,3.6356,3.6583,3.714,3.7716,3.8326,3.8903,3.9367,3.9709,3.9709,3.9455,3.9176,3.8975,3.9552,4.0238,4.0621,4.156,4.264,4.3769,4.4012,4.4113,4.4499,4.4615,4.4615,4.4615,4.5341,4.6024,4.633,4.7046,4.743,4.7129,4.7443,4.7141,4.5675,4.5499,4.527,4.4694,4.4217,4.3966,4.3966,4.3781,4.3322,4.2445,4.2006,4.1203,3.9974,3.9926,3.9887,3.9902,3.9994,3.9916,3.9707,3.9881,3.9509,0.0,0.0,0.0,0.0,0.0,0.0,0.0,0.0,1.7298,1.8819,1.9404,2.0376,2.2762,2.4053,2.5517,2.7787,2.831,2.8535,2.884,2.8931,2.8973,2.9079,3.0396,3.1637,3.2555,3.3748,3.4993,3.631,3.6605,3.6575,3.6109,3.678,3.7495,3.8261,3.778,3.8493,4.0515,3.9621,3.9565,4.0335,4.0401,4.0261,4.0011,3.9922,3.9727,3.9391,3.9391,3.9331,3.9182,3.8751,3.8512,3.838,3.7943,3.8434,3.9242,3.8045,3.7674,3.7627,3.6477,3.6467,3.7004,3.7136,3.7792,3.8567,3.8879,3.9171,3.9361,3.9242,3.9212,3.9032,3.8392,3.906,4.0101,4.0737,4.1785,4.2969,4.4179,4.4544,4.4615,4.4615,4.4615,4.4615,4.4615,4.5275,4.5938,4.6318,4.6957,4.7342,4.712,4.7113,4.6718,4.5773,4.5104,4.4741,4.4872,4.4625,4.451,4.4592,4.4083,4.3523,4.284,4.1797,4.0856,3.9985,4.0051,4.0104,4.0056,4.0428,4.0282,3.9661,4.0564,4.0131,0.0,0.0,0.0,1.5283,1.4579,1.4666,0.0,0.0,1.7732,2.1017,2.2051,2.2678,2.3708,2.5666,2.7224,2.7539,2.8273,2.884,2.8879,2.8609,2.8575,2.9052,3.1381,3.3176,3.3771,3.521,3.6216,3.6381,3.627,3.6183,3.6105,3.5957,3.6429,3.7572,3.7597,3.8116,3.9189,3.9681,3.9815,3.9682,3.9932,4.0046,3.9993,3.9625,3.9427,3.9391,3.9391,3.9062,3.8542,3.9062,3.8931,3.8452,3.8973,3.9272,3.9302,3.8571,3.8661,3.9062,3.8332,3.8366,3.8628,3.8004,3.8307,3.8914,3.8914,3.9136,3.9272,3.8691,3.8512,3.8362,3.7704,3.8625,3.9841,4.0288,4.1848,4.3353,4.3802,4.427,4.4615,4.4615,4.4615,4.4615,4.4615,4.5069,4.5657,4.6317,4.7168,4.7583,4.7148,4.7113,4.6526,4.4993,4.4737,4.452,4.4058,4.3982,4.4162,4.4572,4.4327,4.4208,4.4362,4.3826,4.3166,4.2328,4.1441,4.085,4.061,4.0597,4.0438,4.0147,4.0948,4.0275,1.4382,0.0,0.0,0.0,1.4241,1.4617,1.6535,1.66,1.6846,1.8778,1.9887,2.1178,2.3283,2.4994,2.669,0.0,2.9047,2.9297,2.9297,2.8711,2.8502,2.9082,3.1237,3.2903,3.3474,3.4124,3.4915,3.5811,3.6035,3.6101,3.6101,3.6855,3.7334,3.7496,3.7538,3.7736,3.8099,3.8119,3.8397,3.8969,3.9071,3.9319,3.9643,3.9463,3.9601,3.996,3.9571,3.9679,4.0116,3.9619,3.9709,4.0116,3.9601,3.9631,3.9858,3.8781,3.8571,3.8721,3.8063,3.8167,3.8676,3.8801,3.8996,3.9219,3.9259,3.9044,3.8751,3.8499,3.8409,3.8385,3.834,3.9108,4.0073,4.0833,4.2279,4.3616,4.415,4.4797,4.5094,4.4668,4.4615,4.4615,4.4615,4.5029,4.5563,4.6049,4.6889,4.7389,4.7129,4.6682,4.581,4.4158,4.4011,4.3916,4.3696,4.3808,4.3984,4.4192,4.4207,4.4049,4.3685,4.3386,4.2793,4.1971,4.1674,4.1228,4.0713,4.122,4.0935,4.0006,4.1019,4.0642,1.2684,0.0,0.0,1.3014,1.3586,1.4162,1.4319,1.517,1.6155,1.7021,1.8523,2.0416,2.2843,2.4628,2.6562,2.8993,2.9605,2.9735,2.9618,2.8973,2.8807,2.9647,3.1066,3.2454,3.3648,3.3932,3.4556,3.5662,3.609,3.6257,3.6101,3.7257,3.7696,3.7262,3.71,3.7084,3.7246,3.6865,3.7134,3.8014,3.8333,3.8734,3.9156,3.9319,3.966,4.0098,3.9601,4.0068,4.1025,3.9888,4.0187,4.1283,3.99,3.99,4.0516,3.917,3.8691,3.8601,3.8123,3.8412,3.903,3.9377,3.9451,3.9393,3.9225,3.8676,3.8093,3.793,3.814,3.8432,3.8547,3.9555,4.0724,4.1357,4.2907,4.4293,4.4675,4.5245,4.5534,4.5007,4.4736,4.4615,4.4615,4.5029,4.5511,4.5838,4.6695,4.7236,4.6995,4.6342,4.5443,4.4277,4.4167,4.4167,4.4167,4.4339,4.4408,4.4222,4.4297,4.4019,4.3297,4.3047,4.2577,4.1854,4.1808,4.147,4.0754,4.1429,4.1146,4.0,4.1091,4.1127,0.0,0.0,1.0372,1.1319,1.1738,1.2261,1.3686,1.4999,1.6201,1.7252,1.9679,2.1919,2.2831,2.5444,2.7721,2.8652,2.9575,3.0039,2.9657,2.918,2.946,3.0961,3.1201,3.2249,0.0,3.5858,3.6309,3.6356,3.6705,3.6653,3.6131,3.6433,3.6659,3.6632,3.6062,3.6035,3.6599,3.6673,3.6724,3.6764,3.7938,3.8512,3.8549,3.9137,3.9421,3.9421,3.9421,3.978,4.0367,3.969,4.0187,4.1283,3.99,4.0217,4.1224,3.984,3.9361,3.9361,3.9361,3.9814,4.0335,3.9631,3.9442,3.9358,3.8654,3.796,3.7315,3.6733,3.7451,3.8242,3.7631,3.9668,4.1865,4.1658,4.3653,4.5566,4.5235,4.546,4.5689,4.5669,4.5108,4.4615,4.4615,4.5029,4.5511,4.5838,4.6695,4.7115,4.6662,4.621,4.5883,4.581,4.581,4.581,4.581,4.5819,4.5605,4.5103,4.4838,4.4444,4.3897,4.3622,4.3311,4.2968,4.2187,4.1512,4.0882,4.0913,4.0773,4.0513,4.1264,4.1569,0.0,0.0,1.1142,1.1749,1.2191,1.2622,1.3275,1.4792,1.6178,1.65,1.8253,1.9954,2.0737,2.3151,2.5455,2.6756,2.8535,2.9755,2.9618,2.953,2.9594,2.9838,3.144,0.0,0.0,0.0,0.0,3.5232,3.5981,3.6354,3.6171,3.7198,3.7615,3.7208,3.6612,3.6198,3.5988,3.604,3.625,3.6705,3.792,3.8716,3.9101,3.9301,3.9888,4.0696,4.0277,4.0917,4.2233,4.1175,4.1504,4.2532,4.1235,4.1014,4.1283,4.0397,3.978,3.9427,3.9727,3.9785,3.9821,4.0051,3.9798,3.9332,3.8944,3.8451,3.8003,3.7811,3.808,3.8522,3.9008,4.0067,4.123,4.2157,4.3945,4.5499,4.5684,4.6121,4.6278,4.5805,4.5108,4.4615,4.4615,4.5029,4.573,4.6683,4.7306,4.7451,4.6995,4.68,4.6498,4.5957,4.5883,4.5883,4.5883,4.5883,4.5598,4.4877,4.4753,4.4377,4.3671,4.3558,4.333,4.3022,4.2572,4.1841,4.0887,4.1032,4.0904,4.0492,4.1063,4.1413,0.0,1.0829,1.1608,1.2098,1.2512,1.2936,1.3477,1.4874,1.6161,1.6528,1.7807,1.9192,2.0187,2.2315,2.4331,2.5689,2.7592,2.8973,2.9129,2.9102,2.9424,3.0439,3.1933,0.0,0.0,0.0,0.0,3.5232,3.6055,3.6516,3.6436,3.7554,3.793,3.7512,3.691,3.6415,3.6035,3.5798,3.6151,3.7037,3.7825,3.8482,3.9083,3.954,4.0107,4.0712,4.0771,4.1594,4.291,4.1852,4.2162,4.317,4.1893,4.1553,4.1643,4.0726,4.0127,3.9757,3.9769,3.9785,3.9857,4.0209,3.9904,3.9385,3.91,3.8555,3.8033,3.8033,3.823,3.8552,3.9232,4.0082,4.1123,4.2644,4.4318,4.5771,4.6617,4.6797,4.6665,4.6177,4.5277,4.4615,4.4615,4.5029,4.5832,4.7096,4.7478,4.7591,4.7542,4.7526,4.7342,4.6801,4.6764,4.6764,4.6764,4.6764,4.6425,4.5617,4.5287,4.4782,4.3975,4.3548,4.3169,4.2863,4.2554,4.2134,4.1587,4.1331,4.1184,4.1167,4.1173,4.1289,1.0005,1.0796,1.1683,1.2321,1.2671,1.3188,1.4279,1.5248,1.6191,1.7232,1.8333,1.9517,0.0,0.0,2.4307,2.544,2.6808,2.7878,2.8262,2.8061,2.9112,0.0,0.0,0.0,0.0,0.0,0.0,3.6431,0.0,3.7011,3.6918,3.7404,3.7648,3.7512,3.6937,3.6632,3.6551,3.5988,3.6302,3.7548,3.7548,3.7853,3.8493,3.9784,4.0043,3.9611,4.0899,4.1822,4.241,4.1762,4.2222,4.319,4.1953,4.1871,4.222,4.0924,4.0415,4.0284,3.9649,3.9874,4.0436,4.0117,3.9768,3.9456,3.9129,3.8297,3.7507,3.7507,3.7973,3.8452,3.8452,3.9831,4.1572,4.3022,4.4675,4.6362,4.7778,4.7368,4.6718,4.6718,4.5582,4.4615,4.4629,4.5042,4.5832,4.7084,4.7298,4.7532,4.8219,4.8296,4.8296,4.8296,4.8296,4.8296,4.8296,4.8296,4.7929,4.7076,4.6315,4.5516,4.4663,4.3579,4.2873,4.2609,4.2323,4.2366,4.2764,4.1754,4.165,4.2392,4.1545,4.1197,1.087,1.1536,1.2345,1.3173,1.3709,1.4256,1.4938,1.6121,1.6992,1.6728,1.7124,1.775,0.0,0.0,0.0,2.4221,2.6563,0.0,2.8711,2.93,0.0,0.0,0.0,3.4716,3.6503,3.7096,0.0,0.0,3.6904,3.6644,3.6959,3.7427,3.7648,3.7512,3.7344,3.6829,3.5934,3.5771,3.6111,3.694,3.694,3.7269,3.7863,3.9155,3.9902,4.0324,4.1573,4.2511,4.304,4.2891,4.301,4.326,4.2951,4.2466,4.1961,4.1348,4.0701,4.0027,3.9541,3.9714,4.0104,4.0046,3.996,3.9808,3.942,3.9122,3.8883,3.8883,3.9002,3.9152,3.9152,4.0317,4.1709,4.2594,4.4157,4.5664,4.6585,4.637,4.5974,4.5974,4.5244,4.4651,4.4872,4.5163,4.5768,4.6858,4.7162,4.7532,4.8219,4.8296,4.8296,4.8296,4.8296,4.8296,4.8296,4.8296,4.7709,4.6287,4.5993,4.5259,4.3873,4.3287,4.2873,4.2609,4.2822,4.2763,4.2439,4.2018,4.1982,4.231,4.1394,4.1175,1.1613,1.2392,1.3227,1.372,1.4359,1.5022,1.5683,1.6449,1.7029,1.7127,1.7162,0.0,0.0,0.0,0.0,0.0,0.0,0.0,2.8262,2.8686,2.9874,0.0,3.35,0.0,3.7095,3.7742,3.7914,0.0,3.7047,3.7006,3.7694,3.7753,3.7909,3.8271,3.8022,3.7452,3.6503,3.6232,3.6414,3.7028,3.6797,3.6881,3.725,3.9102,3.9984,4.0167,0.0,4.3,4.329,4.329,4.329,4.329,4.329,4.2818,4.2066,4.1757,4.1004,4.0136,3.9781,3.9816,4.0011,4.0011,4.0011,3.9958,3.9714,3.9517,3.9427,3.9607,3.9809,3.9955,3.991,4.1001,4.231,4.3032,4.4225,4.5487,4.6435,4.6164,4.5602,4.5263,4.4871,4.4699,4.4968,4.5217,4.5679,4.6519,4.7028,4.7478,4.7995,4.8219,4.8296,4.8296,4.8296,4.8296,4.8296,4.8296,4.7893,4.7021,4.6287,4.548,4.4607,4.3423,4.2739,4.2609,4.2736,4.2811,4.2844,4.2492,4.2552,4.2987,4.2228,4.2005,1.2494,1.3487,1.428,1.4442,1.506,1.5837,1.6549,1.6716,1.6956,1.7834,0.0,0.0,1.9757,0.0,2.2221,2.3725,0.0,2.6186,2.7585,2.7642,2.9121,3.3346,3.3798,3.4937,3.7842,3.8115,3.7914,3.7434,3.7357,3.7664,3.8535,3.8155,3.8323,3.9269,3.8618,3.8022,3.7512,3.6883,3.688,3.7398,3.6837,3.6665,3.6889,3.9275,4.0089,3.977,0.0,0.0,4.329,4.329,4.329,4.3309,4.3369,4.2998,4.2374,4.2054,4.1266,4.0371,4.0033,3.9983,4.0043,4.0043,4.0018,3.9993,4.0031,3.9787,3.9535,3.9905,4.0357,4.0724,4.0543,4.1625,4.2979,4.3682,4.4462,4.537,4.6537,4.6159,4.5365,4.4702,4.4615,4.4651,4.4913,4.5163,4.5537,4.6098,4.6741,4.7306,4.771,4.8055,4.8296,4.8296,4.8296,4.8296,4.8296,4.8296,4.826,4.815,4.6828,4.5993,4.5883,4.3889,4.2825,4.2887,4.2607,4.282,4.3607,4.3121,4.3218,4.3881,4.3262,4.3034,1.4406,1.5075,1.5814,1.6758,1.7254,1.7588,1.7846,1.8092,0.0,0.0,0.0,1.8364,2.0085,2.1051,0.0,2.4943,0.0,0.0,0.0,0.0,3.129,0.0,0.0,0.0,0.0,0.0,0.0,0.0,0.0,3.7844,3.7932,3.8289,3.8737,3.9269,3.8239,3.7615,3.7485,3.6883,3.6661,3.6824,3.6186,3.6401,3.7481,3.8971,3.9911,4.0432,4.2446,0.0,4.329,4.329,4.329,4.3329,4.3734,4.3305,4.2438,4.2095,4.1358,4.0397,3.9709,3.9859,4.0309,4.0309,4.0167,4.0031,4.0269,4.013,3.9922,3.9993,4.0547,4.1012,4.0612,4.1625,4.2835,4.2979,4.3686,4.4467,4.5126,4.5018,4.4736,4.4601,4.4615,4.4629,4.4671,4.4899,4.5217,4.5593,4.611,4.6706,4.7374,4.7965,4.8296,4.8296,4.8296,4.8296,4.8296,4.8296,4.8003,4.7333,4.7039,4.6608,4.592,4.4416,4.3878,4.4505,4.3686,4.3546,4.4082,4.382,4.3731,4.3807,4.2708,4.2624,1.567,1.6561,1.7519,1.8878,1.9083,1.8945,1.902,0.0,0.0,0.0,0.0,1.9678,2.1079,0.0,0.0,0.0,0.0,0.0,0.0,0.0,0.0,0.0,0.0,0.0,0.0,0.0,0.0,0.0,0.0,3.8416,3.8616,3.8826,3.9225,3.9793,3.9265,3.9133,3.9466,3.8566,3.8142,3.8153,3.7142,3.7009,3.7663,3.9275,4.0187,4.0617,4.2486,0.0,4.329,4.329,4.3428,4.3695,4.391,4.3708,4.322,4.289,4.2242,4.1395,4.0867,4.0563,4.0457,4.0816,4.0586,4.0154,3.9943,3.9787,3.975,4.0139,4.0704,4.1179,4.1074,4.2094,4.31,4.31,4.3846,4.4556,4.4714,4.4682,4.4615,4.4615,4.4615,4.4615,4.4615,4.4817,4.5042,4.5209,4.5734,4.6269,4.6775,4.7244,4.7772,4.8258,4.8296,4.8296,4.8296,4.8296,4.815,4.7746,4.7333,4.6863,4.6309,4.5032,4.4369,4.444,4.4047,4.4104,4.4574,4.4763,4.502,4.536,4.4899,4.4836,1.7151,1.8313,1.9469,2.105,2.1024,2.0576,2.0384,2.0194,0.0,0.0,0.0,2.1,2.1931,0.0,0.0,0.0,0.0,0.0,0.0,0.0,0.0,0.0,0.0,0.0,0.0,0.0,0.0,0.0,0.0,0.0,3.9337,3.9339,3.9623,4.0266,4.0287,4.0519,4.091,3.9988,3.9419,3.9251,3.815,3.7739,3.8043,3.9585,4.0451,4.0763,4.2396,0.0,0.0,4.3409,4.3675,4.4007,4.4104,4.4032,4.3838,4.3528,4.2921,4.2245,4.1912,4.1287,4.0666,4.1074,4.0726,4.0146,3.9829,3.9691,3.975,4.0349,4.0973,4.1444,4.1506,4.2428,4.3363,4.3476,4.428,4.5035,4.4854,4.4973,4.5074,4.5074,4.4939,4.4838,4.4838,4.4864,4.4927,4.4927,4.5368,4.5822,4.6086,4.6519,4.7082,4.7915,4.8131,4.8229,4.8296,4.8296,4.8296,4.8296,4.7709,4.7199,4.6848,4.5853,4.5142,4.4753,4.4631,4.4862,4.5398,4.5764,4.6244,4.68,4.6751,4.6596,1.9642,2.0813,2.172,2.3441,2.356,2.3039,2.2259,0.0,0.0,0.0,2.092,2.1562,2.1997,2.2989,0.0,0.0,0.0,0.0,0.0,0.0,0.0,0.0,0.0,0.0,0.0,0.0,0.0,0.0,0.0,0.0,3.9333,3.9296,3.9623,4.0266,4.0287,4.0104,3.9673,3.9559,3.9206,3.8564,3.791,3.8154,3.9258,3.9477,4.0201,4.1357,4.2132,0.0,0.0,4.3773,4.3968,4.4046,4.44,4.4146,4.3518,4.3156,4.2591,4.1884,4.1554,4.1411,4.1224,4.0666,4.0038,3.9655,4.048,4.0596,4.0418,4.0487,4.1373,4.2109,4.134,4.2141,4.3242,4.3664,4.4714,4.5612,4.5587,4.6109,4.6597,4.6597,4.6075,4.5602,4.5602,4.5055,4.4643,4.4643,4.4899,4.5182,4.552,4.6024,4.6543,4.697,4.7506,4.7965,4.8277,4.8296,4.8296,4.8296,4.8223,4.8051,4.7704,4.6999,4.6789,4.7162,4.6291,4.6231,4.6996,4.6796,4.6733,4.6766,4.5648,4.548,2.1082,2.2423,2.3475,2.5076,2.4606,2.3611,2.3121,0.0,0.0,2.1251,2.1832,2.2604,2.3042,2.3474,2.4168,0.0,0.0,0.0,0.0,0.0,0.0,0.0,0.0,0.0,0.0,0.0,0.0,0.0,0.0,0.0,3.9292,3.9292,3.9793,4.0866,4.0909,4.1207,4.1773,4.1028,4.0496,4.0221,3.918,3.8955,3.9403,3.9858,4.055,4.1403,4.1673,0.0,0.0,4.3106,4.343,4.4026,4.4181,4.4056,4.3773,4.3651,4.3238,4.2685,4.2179,4.1733,4.1283,4.0606,3.9948,3.9487,3.9872,4.0104,4.0244,4.0453,4.1038,4.1683,4.1975,4.3201,4.4369,4.4444,4.5436,4.6346,4.6346,4.6583,4.68,4.68,4.6549,4.6346,4.6346,4.5737,4.5263,4.5263,4.497,4.4872,4.5142,4.5394,4.5708,4.6232,4.7215,4.7854,4.7975,4.819,4.8296,4.8296,4.8094,4.799,4.792,4.7464,4.7262,4.7311,4.692,4.7019,4.7626,4.7507,4.7699,4.8105,4.716,4.6728,2.2229,2.3677,2.4872,2.6379,2.5657,2.4486,0.0,0.0,2.2772,2.2117,2.2691,2.3406,2.3754,2.4331,2.5012,2.5801,0.0,2.8098,0.0,0.0,0.0,0.0,0.0,0.0,0.0,0.0,0.0,0.0,0.0,0.0,3.9319,3.9491,4.012,4.1239,4.1499,4.1966,4.2741,4.1833,4.1194,4.0786,3.984,3.9391,3.9421,3.9888,4.0457,4.1104,4.1104,0.0,0.0,4.2617,4.3029,4.3734,4.3916,4.4007,4.3988,4.3851,4.3566,4.322,4.2601,4.1961,4.1283,4.0606,3.9948,3.9391,3.9391,3.9661,4.0064,4.0279,4.0904,4.1731,4.2839,4.4269,4.5426,4.5469,4.6312,4.7124,4.7124,4.7293,4.7428,4.7428,4.7259,4.7124,4.7124,4.6346,4.5771,4.6007,4.521,4.4752,4.5151,4.5091,4.5203,4.5695,4.6648,4.7378,4.7643,4.8055,4.8258,4.817,4.8062,4.798,4.7856,4.7864,4.7769,4.7509,4.7646,4.7908,4.8225,4.8225,4.836,4.868,4.7921,4.716,2.3177,2.4634,2.5872,2.7379,2.7111,2.6232,0.0,0.0,2.363,2.3179,2.3472,2.3797,2.3797,2.553,2.7123,2.7611,2.9069,0.0,0.0,0.0,0.0,0.0,0.0,0.0,0.0,0.0,0.0,0.0,0.0,0.0,3.9319,3.9924,4.061,4.126,4.1935,4.2029,4.1433,4.1403,4.0726,3.9421,3.9421,3.9391,3.9391,3.9421,3.978,0.0,0.0,0.0,0.0,4.2561,4.2986,4.3096,4.3734,4.4007,4.3949,4.3468,4.329,4.322,4.2601,4.1961,4.1283,4.0606,3.9948,3.9391,3.9391,3.9661,4.0011,4.0011,4.1158,4.2652,4.3861,4.5092,4.6115,4.6648,4.7346,4.7887,4.7887,4.8462,4.8984,4.8984,4.8394,4.7887,4.7887,4.6669,4.594,4.6699,4.5548,4.4871,4.5602,4.5293,4.5096,4.5376,4.5708,4.6305,4.732,4.7965,4.817,4.7824,4.8229,4.8194,4.7551,4.8349,4.8643,4.8299,4.8731,4.8984,4.8984,4.8984,4.8597,4.7887,4.7158,4.6022,2.3233,2.4789,2.5886,2.6652,2.6202,2.5401,2.4823,0.0,2.4187,2.3682,2.4213,2.4751,2.4764,2.6,2.7274,2.8046,2.931,0.0,0.0,0.0,0.0,0.0,0.0,0.0,0.0,0.0,0.0,0.0,0.0,0.0,3.9319,4.0374,4.1099,4.1281,4.1935,4.2226,4.2062,4.1613,4.0954,4.0098,3.9631,3.9391,3.9391,3.9391,3.975,0.0,0.0,0.0,0.0,4.1265,4.1502,4.1953,4.2634,4.2904,4.2885,4.2749,4.269,4.2541,4.1433,4.0876,4.0606,3.993,3.987,4.0079,4.0079,4.004,4.0265,4.1616,4.3005,4.4296,4.5202,4.6451,4.7503,4.7545,4.8124,4.8631,4.8631,4.8849,4.9018,4.9018,4.88,4.8631,4.8631,4.7853,4.7278,4.7515,4.6312,4.5432,4.5669,4.5125,4.4748,4.4845,4.5328,4.59,4.6601,4.6864,4.6966,4.6853,4.7228,4.753,4.7626,4.8175,4.8548,4.8783,4.8929,4.9018,4.9018,4.8496,4.7616,4.6399,4.6177,4.5548,0.0,2.5476,2.6449,2.647,2.5799,0.0,0.0,0.0,0.0,2.3856,2.473,2.5612,2.585,2.72,2.8549,2.9361,3.0505,0.0,0.0,0.0,0.0,0.0,0.0,0.0,0.0,0.0,0.0,0.0,0.0,0.0,3.9689,4.0717,4.1436,4.1665,4.2333,4.2466,4.2032,4.1613,4.0954,4.0038,3.9601,3.9391,3.9391,3.9391,3.9631,0.0,0.0,0.0,0.0,4.0457,4.0636,4.1104,4.2051,4.2261,4.2051,4.2321,4.2231,4.1871,4.0756,4.0397,4.0277,3.9601,3.984,4.0397,4.0397,4.057,4.1069,4.2631,4.4098,4.5429,4.6245,4.7468,4.846,4.8351,4.8665,4.9018,4.9018,4.9018,4.9018,4.9018,4.9018,4.9018,4.9018,4.8394,4.7988,4.8259,4.7056,4.621,4.65,4.5872,4.5354,4.5196,4.5398,4.5652,4.5806,4.6161,4.6365,4.6221,4.6879,4.7328,4.7493,4.8206,4.8693,4.8984,4.8748,4.8563,4.8563,4.7582,4.6602,4.5689,4.5399,4.5041,0.0,0.0,0.0,0.0,0.0,0.0,0.0,0.0,0.0,0.0,2.5206,2.6454,2.7011,2.8949,3.0636,3.1214,3.2311,0.0,0.0,0.0,0.0,0.0,0.0,0.0,0.0,0.0,0.0,0.0,0.0,0.0,4.0272,4.0951,4.1624,4.2272,4.2911,4.2622,4.1403,4.1343,4.0666,3.9391,3.9391,3.9391,3.9391,3.9391,3.9391,0.0,0.0,0.0,0.0,4.0068,4.0337,4.0457,4.1733,4.1901,4.1403,4.2021,4.1852,4.1224,4.0546,4.0337,4.0247,3.972,4.0008,4.0546,4.0576,4.1275,4.2236,4.3171,4.4584,4.6059,4.7068,4.8138,4.8923,4.8923,4.8907,4.8892,4.8923,4.8923,4.8938,4.8969,4.9018,4.9018,4.9018,4.8428,4.8225,4.8917,4.78,4.7124,4.7819,4.7259,4.6617,4.6107,4.5894,4.5546,4.5022,4.5775,4.6149,4.5825,4.6976,4.7499,4.7187,4.829,4.8917,4.8917,4.8191,4.7819,4.7752,4.6365,4.5669,4.5602,4.4905,4.4615,0.0,0.0,0.0,0.0,0.0,0.0,0.0,0.0,0.0,0.0,0.0,2.7951,2.8263,2.9827,3.1141,3.1284,3.2311,0.0,0.0,0.0,0.0,0.0,0.0,0.0,0.0,0.0,0.0,0.0,0.0,3.9738,4.0272,4.0951,4.1624,4.2272,4.2515,4.2211,4.1403,4.0894,4.0217,3.9391,3.9391,3.9391,3.9391,3.9391,3.9391,0.0,0.0,0.0,3.9421,3.9571,3.9631,3.972,4.0546,4.0756,4.0636,4.0816,4.0756,4.0546,3.9888,3.9631,3.978,4.0636,4.1373,4.2002,4.2472,4.2479,4.2644,4.4285,4.5423,4.6487,4.8135,4.8492,4.8386,4.8386,4.8065,4.7885,4.8306,4.8386,4.8497,4.8907,4.9018,4.9018,4.9018,4.8849,4.8815,4.8984,4.8225,4.7718,4.7887,4.7259,4.6544,4.5857,4.6254,4.6051,4.48,4.4893,4.5002,4.4906,4.6241,4.6971,4.6903,4.7695,4.8157,4.8157,4.7428,4.6786,4.623,4.5858,4.5399,4.4838,4.4668,4.4615,0.0,0.0,0.0,0.0,0.0,0.0,0.0,0.0,0.0,0.0,0.0,0.0,2.9475,0.0,0.0,0.0,0.0,0.0,0.0,0.0,0.0,0.0,0.0,0.0,0.0,0.0,0.0,0.0,0.0,4.0055,4.0738,4.1394,4.2058,4.2749,4.2227,4.1782,4.1403,4.0726,4.0068,3.9391,3.9391,3.9391,3.9391,3.9391,3.9391,0.0,0.0,0.0,3.9391,3.9391,3.9391,3.9481,4.0157,4.0217,3.9978,4.0277,4.0217,3.9888,3.9541,3.9601,4.0038,4.1074,4.1852,4.247,4.2791,4.3171,4.3822,4.5318,4.6088,4.6894,4.8642,4.9064,4.9064,4.9064,4.884,4.881,4.9436,4.9064,4.8758,4.9377,4.9221,4.9018,4.9018,4.9018,4.9018,4.9018,4.868,4.8394,4.8394,4.8071,4.753,4.6771,4.709,4.6718,4.5229,4.5413,4.5311,4.4635,4.5684,4.6278,4.6278,4.7022,4.7259,4.6906,4.6515,4.594,4.5196,4.5196,4.5007,4.4615,4.4615,4.4615,0.0,0.0,0.0,0.0,0.0,0.0,0.0,0.0,0.0,0.0,0.0,0.0,0.0,0.0,0.0,0.0,0.0,0.0,0.0,0.0,0.0,0.0,0.0,0.0,0.0,0.0,0.0,0.0,0.0,4.0631,4.1415,4.2005,4.2598,4.327,4.2162,4.1553,4.1553,4.0666,3.996,3.9391,3.9391,3.9391,3.9391,3.9511,3.9511,3.9421,0.0,0.0,3.9391,3.9391,3.9391,3.9451,4.0038,3.99,3.9481,4.0038,3.9948,3.9571,3.966,4.0157,4.0786,4.1373,4.2002,4.2541,4.2541,4.3697,4.5185,4.6254,4.6738,4.7315,4.8912,4.9668,5.0006,5.0125,5.0077,5.0231,5.0936,5.0008,4.9297,5.0119,4.9593,4.9052,4.9154,4.9086,4.9018,4.9018,4.9018,4.9018,4.9018,4.9018,4.8698,4.7988,4.7988,4.7481,4.5993,4.6549,4.636,4.4871,4.5466,4.5838,4.5703,4.6312,4.6278,4.5534,4.5534,4.5229,4.4615,4.4615,4.4615,4.4615,4.4615,4.4668,2.9475,0.0,0.0,0.0,0.0,0.0,0.0,0.0,0.0,0.0,0.0,0.0,0.0,0.0,0.0,0.0,0.0,0.0,0.0,0.0,0.0,0.0,0.0,0.0,0.0,0.0,0.0,0.0,0.0,4.0845,4.2087,4.2231,4.2598,4.327,4.2631,4.2261,4.2261,4.0457,3.9511,3.9391,3.9391,3.9391,3.9421,4.0008,3.9948,3.9421,0.0,3.99,3.9391,3.9391,3.9391,3.9421,3.9511,3.9481,3.9421,3.9511,3.984,4.0337,4.0894,4.1523,4.2111,4.2201,4.2641,4.316,4.316,4.4367,4.5945,4.7012,4.7395,4.7853,4.9531,4.9684,4.9591,5.0209,5.0007,4.9819,5.0409,4.9859,4.9606,5.0782,4.9916,4.9187,4.983,4.9424,4.9018,4.9018,4.9018,4.9018,4.9018,4.9018,4.8698,4.7988,4.8462,4.824,4.6752,4.7327,4.7109,4.5635,4.621,4.6346,4.5737,4.5805,4.5534,4.477,4.477,4.4702,4.4615,4.4615,4.4615,4.4615,4.4615,4.4939,2.8703,2.8291,0.0,0.0,0.0,0.0,0.0,0.0,0.0,0.0,0.0,0.0,0.0,0.0,0.0,0.0,0.0,0.0,0.0,0.0,0.0,0.0,0.0,0.0,0.0,0.0,0.0,0.0,0.0,0.0,4.2252,4.2638,4.299,4.329,4.272,4.241,4.241,4.1134,4.0487,4.0487,4.0487,4.0487,4.0487,4.0786,4.0576,3.996,0.0,4.0019,3.9391,3.9391,3.9391,3.9391,3.9391,3.9631,3.996,4.0337,4.0666,4.1044,4.1703,4.2141,4.25,4.3199,4.3629,4.3908,4.4267,4.5705,4.7277,4.7794,4.8361,4.9092,5.051,5.0893,5.101,5.1346,5.1229,5.1262,5.1934,5.1127,5.0487,5.1085,5.0338,4.956,4.9526,4.9221,4.9018,4.9018,4.9018,4.9018,4.9018,4.9018,4.8883,4.8529,4.8815,4.8578,4.7496,4.8056,4.7684,4.5838,4.5635,4.565,4.5703,4.5331,4.5128,4.5196,4.5196,4.5007,4.4615,4.5413,4.5582,4.5196,4.5616,4.5988,2.781,2.7459,0.0,0.0,0.0,0.0,0.0,0.0,0.0,0.0,0.0,0.0,0.0,0.0,0.0,0.0,0.0,0.0,0.0,0.0,0.0,0.0,0.0,0.0,0.0,0.0,0.0,0.0,0.0,0.0,4.2496,4.303,4.329,4.329,4.2851,4.2601,4.2601,4.2092,4.1703,4.1403,4.1403,4.1403,4.1403,4.1553,4.1194,4.0427,4.0726,4.0307,3.9421,3.9571,3.9631,3.9631,3.9631,4.0019,4.0696,4.1403,4.1643,4.1733,4.2541,4.284,4.302,4.4167,4.4536,4.4687,4.5453,4.7006,4.8615,4.8822,4.9758,5.0806,5.1511,5.1984,5.2367,5.2536,5.257,5.2739,5.3382,5.2418,5.1505,5.1708,5.098,5.0236,4.983,4.9627,4.9526,4.9526,4.9526,4.9526,4.9526,4.9357,4.9255,4.9255,4.912,4.8766,4.8225,4.8529,4.8037,4.6331,4.5514,4.5379,4.594,4.5413,4.5379,4.594,4.5974,4.5669,4.5108,4.6259,4.6515,4.5974,4.6549,4.6887,2.7295,2.6911,2.6814,0.0,0.0,0.0,0.0,0.0,0.0,0.0,0.0,0.0,0.0,0.0,0.0,0.0,0.0,0.0,0.0,0.0,0.0,0.0,0.0,0.0,0.0,0.0,0.0,0.0,0.0,0.0,4.319,4.327,4.329,4.329,4.326,4.325,4.325,4.319,4.2562,4.1403,4.1403,4.1403,4.1433,4.2032,4.1613,4.0457,4.1703,4.1164,3.9451,4.0068,4.0337,4.0337,4.0337,4.0726,4.1403,4.2081,4.2321,4.25,4.3748,4.4147,4.4287,4.5005,4.5214,4.5421,4.6491,4.7958,4.9525,5.0454,5.1927,5.3095,5.2403,5.2267,5.2503,5.3247,5.3416,5.345,5.3484,5.2841,5.2435,5.3179,5.2148,5.1302,5.1961,5.1472,5.1032,5.1032,5.1032,5.1032,5.1032,5.0439,5.0015,5.0015,4.939,4.8984,4.8951,4.8326,4.7921,4.7752,4.7056,4.6665,4.6718,4.6665,4.6665,4.6718,4.6718,4.6684,4.6631,4.6766,4.6752,4.6718,4.68,4.7158,2.5807,2.5487,2.5397,0.0,0.0,0.0,0.0,0.0,0.0,0.0,0.0,0.0,0.0,0.0,0.0,0.0,0.0,0.0,0.0,0.0,0.0,0.0,0.0,0.0,0.0,0.0,0.0,0.0,0.0,0.0,4.327,4.329,4.329,4.329,4.329,4.329,4.329,4.329,4.307,4.2562,4.2562,4.2562,4.2592,4.2831,4.2462,4.1673,4.2171,4.1733,4.0666,4.0924,4.1014,4.1074,4.1463,4.1792,4.2152,4.3199,4.3569,4.3718,4.4616,4.4915,4.5035,4.5702,4.6331,4.7017,4.7821,4.9413,5.1008,5.1421,5.2497,5.345,5.3145,5.3044,5.3112,5.345,5.3518,5.3518,5.3518,5.3281,5.2976,5.2807,5.23,5.1826,5.1641,5.137,5.1201,5.1201,5.1201,5.1201,5.1201,5.0574,5.0286,5.0744,5.0525,4.9984,4.9086,4.9578,4.9544,4.8631,4.7462,4.6989,4.7462,4.7056,4.7022,4.7481,4.7481,4.7259,4.68,4.7699,4.7936,4.7496,4.7936,4.8545,2.4701,2.4738,2.509,0.0,0.0,0.0,0.0,0.0,0.0,0.0,0.0,0.0,0.0,0.0,0.0,0.0,0.0,0.0,0.0,0.0,0.0,0.0,0.0,0.0,0.0,0.0,0.0,0.0,0.0,0.0,0.0,4.329,4.329,4.329,4.329,4.329,4.329,4.329,4.329,4.329,4.329,4.329,4.329,4.329,4.297,4.241,4.2601,4.2211,4.1403,4.1613,4.1822,4.2073,4.275,4.314,4.3409,4.4287,4.4616,4.4706,4.5394,4.5633,4.5744,4.6581,4.7298,4.807,4.9139,5.048,5.174,5.2259,5.2922,5.3518,5.3518,5.3518,5.3518,5.3518,5.3518,5.3518,5.3518,5.3518,5.3348,5.2807,5.2672,5.2536,5.2013,5.1911,5.1911,5.1911,5.1911,5.1911,5.1911,5.1251,5.0913,5.1167,5.1201,5.0795,4.9781,5.0626,5.0761,4.9747,4.8748,4.8206,4.8259,4.7767,4.7733,4.8225,4.8259,4.8003,4.7496,4.8511,4.8732,4.8259,4.9018,4.9627,2.4201,2.4908,0.0,0.0,0.0,0.0,0.0,0.0,0.0,0.0,0.0,0.0,0.0,0.0,0.0,0.0,0.0,0.0,0.0,0.0,0.0,0.0,0.0,0.0,0.0,0.0,0.0,0.0,0.0,0.0,0.0,4.329,4.329,4.329,4.329,4.329,4.329,4.329,4.329,4.329,4.329,4.329,4.329,4.329,4.297,4.244,4.304,4.2562,4.1463,4.2141,4.278,4.3399,4.4027,4.4706,4.5304,4.5304,4.5304,4.5394,4.6061,4.63,4.6505,4.7625,4.8007,4.8396,5.0397,5.1024,5.1359,5.3041,5.3518,5.3518,5.3518,5.3518,5.3518,5.3518,5.3518,5.3518,5.3518,5.3518,5.3518,5.3518,5.3518,5.3518,5.3518,5.3518,5.3518,5.3518,5.3518,5.3518,5.3484,5.2807,5.2029,5.1269,5.1201,5.1235,5.1201,5.1201,5.1235,5.1201,5.1201,5.0558,4.9086,4.9018,4.9018,4.9018,4.9018,4.9018,4.9018,4.9018,4.9018,4.9052,4.9763,5.0117,2.2742,0.0,0.0,0.0,0.0,0.0,0.0,0.0,0.0,0.0,0.0,0.0,0.0,0.0,0.0,0.0,0.0,0.0,0.0,0.0,0.0,0.0,0.0,0.0,0.0,0.0,0.0,0.0,0.0,0.0,0.0,4.329,4.329,4.329,4.329,4.329,4.329,4.329,4.329,4.329,4.329,4.329,4.329,4.329,4.322,4.304,4.322,4.31,4.2741,4.2951,4.3399,4.4027,4.4207,4.4706,4.5364,4.5822,4.6001,4.6091,4.6749,4.6988,4.7104,4.7776,4.878,4.9864,5.0741,5.1813,5.2852,5.3348,5.3518,5.3619,5.4126,5.4262,5.4126,5.3619,5.3518,5.3518,5.3518,5.3518,5.3518,5.3518,5.3518,5.3518,5.3518,5.3518,5.3518,5.3518,5.3518,5.3315,5.2739,5.2942,5.2638,5.1336,5.2182,5.2385,5.1302,5.2182,5.2351,5.1269,5.1674,5.1319,4.983,4.9763,4.9763,4.9763,4.9255,4.9526,5.0558,4.9526,4.951,5.0525,5.0236,5.0658,2.3256,0.0,0.0,0.0,0.0,0.0,0.0,0.0,0.0,0.0,0.0,0.0,0.0,0.0,0.0,0.0,0.0,0.0,0.0,0.0,0.0,0.0,0.0,0.0,0.0,0.0,0.0,0.0,0.0,0.0,0.0,4.329,4.329,4.329,4.329,4.329,4.329,4.329,4.329,4.329,4.329,4.329,4.329,4.329,4.329,4.329,4.329,4.329,4.3319,4.3609,4.4087,4.4736,4.4984,4.5514,4.6142,4.6561,4.6689,4.6749,4.716,4.7439,4.7688,4.8366,4.9378,5.0531,5.1732,5.2776,5.37,5.4227,5.4191,5.4137,5.4835,5.4832,5.4525,5.4041,5.3923,5.3856,5.3551,5.3518,5.3518,5.3518,5.3518,5.3518,5.3518,5.3518,5.3518,5.3518,5.3518,5.3315,5.2841,5.3213,5.3129,5.2216,5.2926,5.3129,5.2182,5.2976,5.3095,5.2182,5.2536,5.2232,5.1014,5.0676,5.0541,5.0541,5.0101,5.0322,5.1201,5.0288,5.0322,5.1201,5.1048,5.1454,0.0,0.0,0.0,0.0,0.0,0.0,0.0,0.0,0.0,0.0,0.0,0.0,0.0,0.0,0.0,0.0,0.0,0.0,0.0,0.0,0.0,0.0,0.0,0.0,0.0,0.0,0.0,0.0,0.0,0.0,0.0,4.329,4.329,4.329,4.329,4.329,4.329,4.329,4.329,4.329,4.329,4.329,4.329,4.329,4.329,4.329,4.329,4.3319,4.3459,4.4057,4.4736,4.5454,4.6061,4.6719,4.7309,4.7309,4.7309,4.7309,4.7309,4.7559,4.8133,4.9177,4.9837,5.066,5.2906,5.3692,5.4053,5.5254,5.5226,5.4953,5.5572,5.5306,5.4819,5.4646,5.4599,5.4397,5.3754,5.3551,5.3518,5.3518,5.3518,5.3518,5.3518,5.3518,5.3518,5.3518,5.3518,5.3518,5.3518,5.3518,5.3518,5.3518,5.3518,5.3518,5.3518,5.3518,5.3518,5.3518,5.3518,5.3179,5.2435,5.1708,5.1302,5.1302,5.1235,5.1269,5.1404,5.1269,5.1269,5.1438,5.2029,5.2334,0.0,0.0,0.0,0.0,0.0,0.0,0.0,0.0,0.0,0.0,0.0,0.0,0.0,0.0,0.0,0.0,0.0,0.0,0.0,0.0,0.0,0.0,0.0,0.0,0.0,0.0,0.0,0.0,0.0,0.0,4.329,4.329,4.329,4.329,4.329,4.329,4.329,4.329,4.329,0.0,4.329,4.329,4.329,4.329,4.329,4.329,4.329,4.3609,4.4087,4.4237,4.5014,4.6091,4.6241,4.6719,4.7309,4.7309,4.7309,4.7309,4.7309,4.7374,4.7688,4.9044,4.9903,5.0672,5.2314,5.3574,5.4462,5.4768,5.5156,5.5535,5.578,5.6112,5.6091,5.4925,5.464,5.4583,5.4397,5.3923,5.3518,5.3518,5.3518,5.3518,5.3518,5.3518,5.3518,5.3518,5.3518,5.3518,5.3518,5.3518,5.3518,5.3518,5.3518,5.3518,5.3518,5.3518,5.3518,5.3518,5.3518,5.3416,5.3247,5.2469,5.2063,5.2063,5.1472,5.181,5.2993,5.1776,5.181,5.301,5.2536,5.2638,0.0,0.0,0.0,0.0,0.0,0.0,0.0,0.0,0.0,0.0,0.0,0.0,0.0,0.0,0.0,0.0,0.0,0.0,0.0,0.0,0.0,0.0,0.0,0.0,0.0,0.0,0.0,0.0,0.0,4.329,4.329,4.329,4.329,4.329,4.329,4.329,4.329,4.329,4.329,4.329,4.329,4.329,4.329,4.329,4.329,4.329,4.329,4.3519,4.3878,4.4506,4.5185,4.5903,4.651,4.701,4.7309,4.7309,4.7309,4.7309,4.7309,4.7559,4.8082,4.9177,5.0439,5.181,5.322,5.4586,5.5716,5.6089,5.6264,5.6343,5.6396,5.6646,5.6712,5.5977,5.5458,5.4938,5.4228,5.3788,5.3518,5.3518,5.3518,5.3619,5.3957,5.4025,5.4025,5.4025,5.4025,5.4025,5.4025,5.4329,5.4549,5.4549,5.4549,5.4549,5.4549,5.4549,5.4549,5.4549,5.4228,5.4025,5.4025,5.3281,5.2875,5.2875,5.2486,5.2689,5.3518,5.2689,5.2689,5.3484,5.3078,5.3281,0.0,0.0,0.0,0.0,0.0,0.0,0.0,0.0,0.0,0.0,0.0,0.0,0.0,0.0,0.0,0.0,0.0,0.0,0.0,0.0,0.0,0.0,0.0,0.0,0.0,0.0,0.0,0.0,0.0,4.329,4.329,4.329,4.325,4.316,4.325,4.325,4.316,4.325,4.329,4.329,4.329,4.329,4.329,4.329,4.329,4.329,4.329,4.3409,4.3728,4.4855,4.5424,4.5753,4.686,4.7309,4.7309,4.7309,4.7309,4.7309,4.7309,4.7773,4.8552,4.9544,5.1005,5.2706,5.4302,5.5636,5.672,5.7236,5.7282,5.7082,5.6776,5.6853,5.6935,5.6706,5.6185,5.5373,5.416,5.3687,5.3551,5.3687,5.3788,5.4025,5.4499,5.4702,5.4769,5.4769,5.4769,5.4735,5.4617,5.5243,5.5665,5.553,5.5631,5.5699,5.5699,5.5699,5.5699,5.5699,5.5141,5.4769,5.4769,5.4194,5.389,5.389,5.3653,5.3518,5.3518,5.3518,5.3518,5.3518,5.3619,5.4025,0.0,0.0,0.0,0.0,0.0,0.0,0.0,0.0,0.0,0.0,0.0,0.0,0.0,0.0,0.0,0.0,0.0,0.0,0.0,0.0,0.0,0.0,0.0,0.0,0.0,0.0,0.0,0.0,4.329,4.329,4.329,4.329,4.304,4.2541,4.301,4.304,4.2511,4.304,4.329,4.329,4.329,4.329,4.329,4.329,4.329,4.329,4.329,4.3967,4.5035,4.5214,4.5992,4.707,4.7249,4.7309,4.7309,4.7309,4.7309,4.7309,4.7309,4.7396,4.7907,5.0409,5.1021,5.1315,5.3935,5.5273,5.5869,5.5424,5.6492,5.742,5.5781,5.6159,5.6687,5.5487,5.5549,5.5795,5.5458,5.438,5.3687,5.4329,5.4972,5.5225,5.4668,5.5141,5.5564,5.5564,5.5564,5.5327,5.4668,5.5243,5.548,5.4803,5.5327,5.5699,5.5699,5.5699,5.5699,5.5699,5.5597,5.5564,5.5564,5.5462,5.5395,5.5395,5.416,5.3518,5.3518,5.3518,5.3518,5.3518,5.416,5.4516,0.0,0.0,0.0,0.0,0.0,0.0,0.0,0.0,0.0,0.0,0.0,0.0,0.0,0.0,0.0,0.0,0.0,0.0,0.0,0.0,0.0,0.0,0.0,0.0,0.0,0.0,0.0,0.0,4.329,4.329,4.329,4.329,4.319,4.291,4.316,4.316,4.291,4.316,4.329,4.329,4.329,4.329,4.329,4.329,4.329,4.3319,4.3698,4.4177,4.4796,4.5574,4.6211,4.6779,4.716,4.7309,4.7309,4.7309,4.7309,4.7369,4.7728,4.8218,4.888,5.0486,5.166,5.2704,5.3942,5.5339,5.6355,5.5686,5.6668,5.7461,5.56,5.604,5.6734,5.5765,5.5732,5.597,5.625,5.5462,5.482,5.5141,5.5818,5.6224,5.5886,5.6089,5.6308,5.6308,5.6308,5.619,5.5852,5.6494,5.6799,5.6461,5.6731,5.6934,5.6934,5.6934,5.6934,5.6934,5.6562,5.6308,5.6308,5.5902,5.5699,5.5699,5.5056,5.4532,5.4126,5.4126,5.389,5.3518,5.4262,5.4803,0.0,0.0,0.0,0.0,0.0,0.0,0.0,0.0,0.0,0.0,0.0,0.0,0.0,0.0,0.0,0.0,0.0,0.0,0.0,0.0,0.0,0.0,0.0,0.0,0.0,0.0,0.0,0.0,4.329,4.329,4.329,4.329,4.325,4.307,4.322,4.325,4.307,4.322,4.329,4.329,4.329,4.329,4.3309,4.3489,4.3549,4.3559,4.4087,4.4476,4.4895,4.5882,4.639,4.66,4.71,4.7309,4.7309,4.7309,4.7309,4.7399,4.8079,4.8836,4.971,5.0777,5.224,5.3672,5.4151,5.5436,5.6569,5.5761,5.6569,5.7218,5.5336,5.5661,5.6414,5.608,5.596,5.605,5.6435,5.6258,5.5902,5.5733,5.6461,5.7036,5.6833,5.6968,5.707,5.707,5.707,5.7002,5.6833,5.7442,5.7832,5.7645,5.7798,5.79,5.79,5.79,5.79,5.79,5.7374,5.707,5.707,5.6562,5.6258,5.6258,5.6258,5.5716,5.4617,5.4617,5.4228,5.3518,5.4431,5.5175,0.0,0.0,0.0,0.0,0.0,0.0,0.0,0.0,0.0,0.0,0.0,0.0,0.0,0.0,0.0,0.0,0.0,0.0,0.0,0.0,0.0,0.0,0.0,0.0,0.0,0.0,0.0,0.0,4.329,4.329,4.329,4.329,4.304,4.247,4.3,4.301,4.244,4.301,4.329,4.329,4.329,4.329,4.3319,4.3967,4.4237,4.4237,4.4267,4.5014,4.6211,4.6271,4.6659,4.7249,4.7309,4.7309,4.7309,4.7309,4.7309,4.7399,4.8079,4.8618,4.9408,5.1744,5.2468,5.2816,5.4502,5.5507,5.5801,5.4539,5.558,5.6589,5.4665,5.4665,5.5316,5.5881,5.6008,5.5946,5.5788,5.6292,5.6562,5.5834,5.6867,5.7611,5.6934,5.7374,5.7832,5.7832,5.7832,5.7577,5.69,5.7442,5.7629,5.6934,5.7476,5.79,5.79,5.79,5.79,5.79,5.7866,5.7832,5.7832,5.7832,5.7798,5.7798,5.7798,5.6749,5.4617,5.4617,5.4228,5.3551,5.4955,5.5665,0.0,0.0,0.0,0.0,0.0,0.0,0.0,0.0,0.0,0.0,0.0,0.0,0.0,0.0,0.0,0.0,0.0,0.0,0.0,0.0,0.0,0.0,0.0,0.0,0.0,0.0,0.0,0.0,0.0,4.329,4.329,4.329,4.322,4.3,4.319,4.322,4.3,4.319,4.329,4.329,4.329,4.3549,4.3938,4.4177,4.4775,4.5583,4.5583,4.5852,4.633,4.6749,4.7078,4.7309,4.7309,4.7309,4.7309,4.7309,4.7309,4.7459,4.8558,4.9251,4.9926,5.1615,5.2555,5.3174,5.3805,5.4675,5.5316,5.4874,5.5519,5.6198,5.5499,5.5193,5.5131,5.5357,5.6355,5.7085,5.662,5.7052,5.7408,5.7171,5.7543,5.7832,5.7543,5.773,5.79,5.79,5.79,5.778,5.7543,5.773,5.7798,5.7509,5.773,5.79,5.79,5.79,5.79,5.79,5.79,5.79,5.79,5.79,5.79,5.79,5.79,5.7273,5.6021,5.6021,5.5649,5.4921,5.5936,5.6409,0.0,0.0,0.0,0.0,0.0,0.0,0.0,0.0,0.0,0.0,0.0,0.0,0.0,0.0,0.0,0.0,0.0,0.0,0.0,0.0,0.0,0.0,0.0,0.0,0.0,0.0,0.0,0.0,0.0,0.0,4.329,4.329,4.329,4.329,4.329,4.329,4.329,4.329,4.3409,4.3638,4.3638,4.3878,4.4296,4.4775,4.5313,4.5971,4.642,4.6629,4.6659,4.713,4.7309,4.7309,4.7309,4.7309,4.7309,4.7309,4.7309,4.7489,4.8828,4.9613,5.0225,5.1493,5.2487,5.3201,5.3355,5.4061,5.4821,5.479,5.5213,5.564,5.5418,5.5213,5.5028,5.4883,5.6067,5.7162,5.6806,5.735,5.79,5.79,5.79,5.79,5.79,5.79,5.79,5.79,5.79,5.79,5.79,5.79,5.79,5.79,5.79,5.79,5.79,5.79,5.79,5.79,5.79,5.79,5.79,5.79,5.79,5.79,5.79,5.7645,5.7171,5.6934,5.6427,5.5733,5.6461,5.6934,0.0,0.0,0.0,0.0,0.0,0.0,0.0,0.0,0.0,0.0,0.0,0.0,0.0,0.0,0.0,0.0,0.0,0.0,0.0,0.0,0.0,0.0,0.0,0.0,0.0,0.0,0.0,0.0,4.329,4.329,4.329,4.329,4.329,4.329,4.329,4.329,4.329,4.329,4.3638,4.4267,4.4267,4.4296,4.4356,4.5672,4.5942,4.5424,4.6741,4.7309,4.7309,4.7309,4.7309,4.7309,4.7309,4.7309,4.7339,4.7339,4.7339,4.7549,4.8858,4.9621,5.0211,5.1471,5.2238,5.2757,5.3246,5.3803,5.4221,5.4135,5.4539,5.4895,5.4253,5.4581,5.4966,5.4391,5.514,5.6008,5.6087,5.7001,5.7827,5.7881,5.79,5.79,5.79,5.79,5.79,5.79,5.7881,5.7881,5.79,5.7881,5.7881,5.79,5.79,5.79,5.79,5.79,5.79,5.79,5.79,5.79,5.79,5.79,5.79,5.79,5.79,5.79,5.79,5.7171,5.6443,5.5767,5.6494,5.7205,3.1065,0.0,0.0,0.0,0.0,0.0,0.0,0.0,0.0,0.0,0.0,0.0,0.0,0.0,0.0,0.0,0.0,0.0,0.0,0.0,0.0,0.0,0.0,0.0,0.0,0.0,0.0,0.0,4.329,4.329,4.329,4.329,4.329,4.329,4.329,4.329,4.329,4.329,4.3379,4.3579,4.3579,4.4087,4.5035,4.5424,4.5992,4.677,4.713,4.7309,4.7309,4.7309,4.7309,4.7309,4.7309,4.7608,4.8027,4.8027,4.8349,4.8858,4.9673,5.0041,5.0275,5.1116,5.1711,5.2238,5.2735,5.2993,5.3302,5.4061,5.3825,5.3302,5.3135,5.4157,5.4881,5.3468,5.4338,5.5292,5.4484,5.4941,5.6001,5.7591,5.79,5.79,5.79,5.79,5.79,5.79,5.7532,5.7402,5.7845,5.7514,5.742,5.7845,5.79,5.79,5.79,5.79,5.79,5.79,5.79,5.79,5.79,5.79,5.79,5.79,5.79,5.79,5.79,5.7697,5.7476,5.7306,5.7476,5.773,0.0,0.0,0.0,0.0,0.0,0.0,3.4051,3.4352,3.4778,0.0,0.0,0.0,0.0,0.0,0.0,0.0,0.0,0.0,0.0,0.0,0.0,0.0,0.0,0.0,0.0,4.3439,4.329,4.329,4.329,4.329,4.329,4.329,4.329,4.329,4.329,4.329,4.329,4.329,4.3459,4.3728,4.3728,4.4267,4.5304,4.5603,4.6121,4.6899,4.7189,4.7309,4.7309,4.7309,4.7459,4.7728,4.7728,4.8139,4.8708,4.8708,4.8947,4.9396,4.9979,5.0196,5.0315,5.0996,5.1386,5.1688,5.2215,5.2374,5.2577,5.3381,5.3192,5.2712,5.2712,5.3446,5.3891,5.2659,5.3315,5.4062,5.3427,5.3773,5.4651,5.6217,5.6509,5.66,5.6773,5.6825,5.6882,5.7086,5.6801,5.6801,5.7439,5.7214,5.7233,5.7827,5.79,5.79,5.79,5.79,5.79,5.79,5.79,5.79,5.79,5.79,5.79,5.79,5.79,5.79,5.79,5.79,5.79,5.79,5.79,5.79,0.0,0.0,0.0,0.0,0.0,0.0,3.4126,3.3771,3.3571,3.4954,0.0,0.0,0.0,0.0,0.0,0.0,0.0,0.0,0.0,0.0,0.0,0.0,0.0,0.0,4.4296,4.3758,4.3399,4.3309,4.329,4.329,4.329,4.329,4.329,4.329,4.329,4.329,4.329,4.329,4.3609,4.4177,4.4267,4.4646,4.5304,4.5971,4.633,4.645,4.704,4.7309,4.7309,4.7309,4.7638,4.8199,4.8289,4.8708,4.9307,4.9366,4.9456,4.9606,5.0129,5.0315,5.0405,5.0996,5.1206,5.1299,5.1757,5.1926,5.1994,5.2419,5.2532,5.2532,5.2532,5.2577,5.2487,5.1964,5.2238,5.2614,5.2687,5.3042,5.3492,5.4105,5.4442,5.4734,5.5137,5.5198,5.5393,5.5848,5.5848,5.608,5.6815,5.6834,5.7025,5.7625,5.7753,5.779,5.779,5.7863,5.79,5.79,5.79,5.79,5.79,5.79,5.79,5.79,5.79,5.79,5.79,5.79,5.79,5.79,5.79,5.79,0.0,0.0,0.0,0.0,0.0,0.0,3.2921,3.3244,3.3696,0.0,0.0,0.0,0.0,0.0,0.0,0.0,0.0,0.0,0.0,0.0,0.0,0.0,0.0,0.0,4.4356,4.4177,4.3878,4.3319,4.329,4.329,4.329,4.329,4.329,4.329,4.329,4.329,4.329,4.329,4.3369,4.3519,4.4027,4.4646,4.5304,4.5971,4.66,4.713,4.7249,4.7309,4.7309,4.7309,4.7369,4.7549,4.8087,4.8708,4.9366,4.9853,5.0368,5.087,5.0966,5.0996,5.1026,5.1146,5.1206,5.1299,5.1757,5.1642,5.1393,5.1486,5.1479,5.1479,5.1479,5.178,5.1941,5.1433,5.1711,5.1964,5.1618,5.1588,5.1704,5.1842,5.3331,5.463,5.4713,5.4734,5.4911,5.5373,5.4964,5.5017,5.606,5.5761,5.5701,5.6316,5.6839,5.7176,5.7176,5.7625,5.79,5.79,5.79,5.79,5.79,5.79,5.79,5.79,5.79,5.79,5.79,5.79,5.79,5.79,5.79,5.79,0.0,0.0,0.0,3.2993,0.0,0.0,0.0,3.3068,3.3144,3.3442,3.3517,0.0,0.0,0.0,0.0,0.0,0.0,0.0,0.0,0.0,0.0,0.0,0.0,0.0,4.4825,4.4177,4.3668,4.3319,4.329,4.329,4.329,4.329,4.329,4.329,4.3638,4.3638,4.329,4.3638,4.3818,4.3818,4.4147,4.4835,4.5813,4.6151,4.6659,4.7309,4.7309,4.7309,4.7309,4.7309,4.7489,4.7848,4.8528,4.9187,4.9823,5.0458,5.0907,5.1206,5.1206,5.1206,5.1206,5.1206,5.1206,5.1223,5.1479,5.1386,5.1206,5.1206,5.1206,5.1206,5.1206,5.1363,5.1479,5.1276,5.1363,5.1479,5.1246,5.1206,5.1206,5.1206,5.2132,5.2967,5.3209,5.3231,5.3405,5.3934,5.3729,5.3901,5.5017,5.4893,5.5161,5.6375,5.6815,5.712,5.742,5.7717,5.79,5.79,5.79,5.79,5.79,5.79,5.79,5.79,5.79,5.79,5.79,5.79,5.79,5.79,5.79,5.79,0.0,0.0,0.0,0.0,0.0,3.3144,0.0,0.0,0.0,3.3896,0.0,0.0,0.0,0.0,0.0,0.0,0.0,0.0,0.0,0.0,0.0,0.0,0.0,0.0,0.0,4.3997,4.329,4.329,4.329,4.329,4.329,4.3409,4.3489,4.3489,4.4147,4.4177,4.3519,4.4027,4.4296,4.4296,4.4436,4.5134,4.63,4.642,4.6779,4.7309,4.7309,4.7309,4.7309,4.7309,4.7698,4.8379,4.9037,4.9673,5.0278,5.0936,5.1206,5.1229,5.1293,5.1316,5.1316,5.1316,5.1276,5.1206,5.1206,5.1206,5.1206,5.1206,5.1206,5.1206,5.1206,5.1206,5.1206,5.1206,5.1206,5.1206,5.1206,5.1206,5.1206,5.1206,5.1206,5.1323,5.1688,5.178,5.1941,5.2487,5.2555,5.2882,5.3879,5.4147,5.4861,5.6336,5.6782,5.7195,5.768,5.7827,5.79,5.79,5.79,5.79,5.79,5.79,5.79,5.79,5.79,5.79,5.79,5.8017,5.8017,5.79,5.79,5.8001,0.0,0.0,0.0,0.0,3.5253,0.0,0.0,0.0,3.4502,3.48,0.0,0.0,0.0,0.0,0.0,0.0,0.0,0.0,0.0,0.0,0.0,0.0,0.0,0.0,0.0,4.3758,4.329,4.329,4.329,4.329,4.329,4.3878,4.4177,4.4177,4.4855,4.4855,4.4177,4.4267,4.4296,4.4296,4.4915,4.5574,4.633,4.692,4.7249,4.7309,4.7309,4.7309,4.7309,4.7309,4.7698,4.8379,4.9037,4.9673,5.0278,5.0936,5.1206,5.1276,5.1665,5.1826,5.1826,5.1826,5.1526,5.1206,5.1206,5.1206,5.1206,5.1206,5.1206,5.1206,5.1206,5.1206,5.1206,5.1206,5.1206,5.1206,5.1206,5.1206,5.1206,5.1206,5.1206,5.1229,5.1276,5.1299,5.1463,5.1994,5.204,5.2215,5.2793,5.3707,5.4391,5.4569,5.6047,5.7025,5.7101,5.7588,5.79,5.79,5.79,5.79,5.79,5.79,5.79,5.79,5.79,5.79,5.79,5.8558,5.8558,5.79,5.79,5.8254,0.0,0.0,0.0,0.0,0.0,0.0,0.0,0.0,3.5442,0.0,0.0,0.0,0.0,0.0,0.0,0.0,0.0,0.0,0.0,0.0,0.0,0.0,0.0,0.0,0.0,0.0,0.0,0.0,4.3459,4.3549,4.284,4.3389,4.3908,4.4296,4.4945,4.5155,4.4885,4.5254,4.5463,4.5463,4.5753,4.6211,4.6869,4.7189,4.7309,4.7309,4.7309,4.7309,4.7339,4.7728,4.8289,4.8947,4.9583,4.9979,5.0278,5.0936,5.1206,5.1276,5.1734,5.1711,5.1479,5.1479,5.1339,5.1206,5.1206,5.1206,5.1206,5.1206,5.1206,5.1206,5.1206,5.1206,5.1206,5.1206,5.1206,5.1206,5.1206,5.1206,5.1206,5.1206,5.1206,5.1206,5.1206,5.1206,5.1299,5.1509,5.1533,5.1688,5.2223,5.2905,5.3599,5.4243,5.5568,5.6569,5.6968,5.7551,5.79,5.79,5.79,5.8084,5.8524,5.8137,5.8084,5.8524,5.8118,5.79,5.79,5.822,5.8186,5.7934,5.8355,5.8693,3.5656,0.0,0.0,0.0,0.0,0.0,0.0,0.0,0.0,0.0,0.0,0.0,0.0,0.0,0.0,0.0,0.0,0.0,0.0,0.0,0.0,0.0,0.0,0.0,0.0,0.0,0.0,4.25,4.3419,4.3539,4.247,4.315,4.3878,4.4556,4.5394,4.5753,4.5574,4.6061,4.63,4.63,4.63,4.6659,4.7309,4.7309,4.7309,4.7309,4.7309,4.7309,4.7369,4.8027,4.8708,4.9366,4.9949,5.0315,5.0548,5.1026,5.1206,5.1299,5.1918,5.1895,5.1572,5.1433,5.1293,5.1206,5.1206,5.1206,5.1206,5.1206,5.1206,5.1206,5.1206,5.1206,5.1206,5.1206,5.1206,5.1206,5.1206,5.1206,5.1206,5.1206,5.1206,5.1206,5.1206,5.1206,5.1206,5.1206,5.1206,5.1346,5.1718,5.2465,5.3315,5.4296,5.5527,5.663,5.7496,5.7744,5.79,5.79,5.79,5.8118,5.8693,5.8389,5.8355,5.8693,5.8355,5.8084,5.79,5.8084,5.8186,5.822,5.8558,5.8912,0.0,0.0,0.0,3.6482,0.0,0.0,0.0,0.0,3.9669,0.0,0.0,0.0,0.0,0.0,0.0,0.0,0.0,0.0,0.0,0.0,0.0,0.0,0.0,0.0,0.0,0.0,0.0,4.25,4.297,4.306,4.244,4.3569,4.4586,4.5244,4.6561,4.6899,4.6271,4.63,4.63,4.63,4.63,4.6659,4.7309,4.7309,4.7309,4.7309,4.7309,4.7309,4.7369,4.8027,4.8708,4.9366,4.9949,5.0607,5.1176,5.1176,5.1206,5.1316,5.2329,5.2667,5.2577,5.2056,5.1572,5.1206,5.1206,5.1206,5.1206,5.1206,5.1206,5.1206,5.1206,5.1206,5.1206,5.1206,5.1206,5.1206,5.1206,5.1206,5.1206,5.1206,5.1206,5.1206,5.1206,5.1206,5.1206,5.1206,5.1206,5.1229,5.1229,5.2606,5.3838,5.4526,5.6014,5.7515,5.8803,5.8321,5.79,5.79,5.79,5.7934,5.7934,5.8592,5.866,5.7967,5.8626,5.8626,5.79,5.8626,5.8945,5.8945,5.8254,5.8693,0.0,0.0,3.7085,3.6532,0.0,0.0,0.0,0.0,0.0,0.0,0.0,0.0,0.0,0.0,0.0,0.0,0.0,0.0,0.0,0.0,0.0,0.0,0.0,0.0,0.0,0.0,0.0,4.1852,4.2711,4.2831,4.1792,4.3359,4.4616,4.5274,4.6172,4.6719,4.6958,4.6958,4.6958,4.6958,4.6958,4.71,4.7309,4.7309,4.7309,4.7309,4.7309,4.7549,4.7997,4.8678,4.9314,4.9949,5.0607,5.0996,5.1206,5.1206,5.1206,5.1253,5.1572,5.2147,5.2555,5.1711,5.1316,5.1206,5.1206,5.1206,5.1206,5.1206,5.1206,5.1206,5.1206,5.1206,5.1206,5.1206,5.1206,5.1206,5.1206,5.1206,5.1325,5.1798,5.1858,5.2007,5.2456,5.2516,5.2366,5.1947,5.2247,5.2516,5.2516,5.2875,5.3501,5.451,5.5366,5.6362,5.7568,5.7796,5.8084,5.8592,5.8152,5.8118,5.8626,5.8389,5.8389,5.8626,5.8389,5.8152,5.79,5.866,5.9013,5.9013,5.9241,5.9904,3.7262,3.7185,0.0,3.6959,3.7379,0.0,3.7619,0.0,0.0,0.0,0.0,0.0,0.0,0.0,0.0,0.0,0.0,0.0,0.0,0.0,0.0,0.0,0.0,0.0,0.0,0.0,4.313,4.1194,4.2043,4.2282,0.0,0.0,4.4356,4.5274,4.6202,4.6839,4.7309,4.7309,4.7309,4.7309,4.7309,4.7309,4.7309,4.7309,4.7309,4.7309,4.7309,4.7668,4.8349,4.9007,4.9643,5.0278,5.0936,5.1206,5.1206,5.1206,5.1409,5.1711,5.1503,5.201,5.2577,5.1764,5.1369,5.1206,5.1206,5.1206,5.1206,5.1206,5.1206,5.1206,5.1206,5.1206,5.1206,5.1206,5.1206,5.1265,5.1475,5.1558,5.1768,5.2426,5.2546,5.2665,5.3139,5.3408,5.3324,5.2665,5.3074,5.3423,5.3223,5.3338,5.3713,5.4536,5.5174,5.6145,5.7601,5.8066,5.849,5.8979,5.8321,5.8118,5.8592,5.8389,5.8761,5.9791,5.9066,5.8949,5.949,5.9438,5.952,5.9844,6.0325,6.0954]},{"header":{"parameterUnit":"m.s-1","parameterCategory":1,"la1":30.6,"la2":29.2853,"lo1":-89.7004,"lo2":-87.6739,"dx":0.0162,"dy":0.0183,"nx":112,"ny":82,"refTime":"2023-01-22T18:00:00:Z","depth":0,"parameterNumber":3,"parameterNumberName":"V-component_of_WINDS"},"data":[0.0,0.0,0.0,0.0,0.0,0.0,0.0,0.0,0.0,0.0,0.0,0.0,0.0,0.0,0.0,0.0,0.0,0.0,0.0,0.0,0.0,0.0,0.0,0.0,0.0,0.0,0.0,0.0,0.0,0.0,0.0,0.0,0.0,0.0,0.0,0.0,0.0,0.0,0.0,0.0,0.0,0.0,0.0,0.0,0.0,0.0,0.0,0.0,0.0,0.0,0.0,0.0,0.0,0.0,0.0,0.0,0.0,0.0,0.0,0.0,0.0,0.0,0.0,0.0,0.0,0.0,0.0,0.0,0.0,0.0,0.0,0.0,0.0,0.0,0.0,0.0,0.0,0.0,0.0,0.0,0.0,0.0,0.0,0.0,0.0,0.0,0.0,0.0,0.0,0.0,0.0,1.3596,1.0731,0.8859,0.8906,0.9027,0.8989,0.8736,0.0,0.0,0.0,0.0,0.0,0.0,0.0,0.0,0.0,0.0,0.0,0.0,0.0,0.0,0.0,0.0,0.0,0.0,0.0,0.0,0.0,0.0,0.0,0.0,0.0,0.0,0.0,0.0,0.0,0.0,0.0,0.0,0.0,0.0,0.0,0.0,0.0,0.0,0.0,0.0,0.0,0.0,0.0,0.0,0.0,0.0,0.0,0.0,0.0,0.0,0.0,0.0,0.0,0.0,0.0,0.0,0.0,0.0,0.0,0.0,0.0,0.0,0.0,0.0,0.0,0.0,0.0,0.0,0.0,0.0,0.0,0.0,0.0,0.0,0.0,0.0,0.0,0.0,0.0,0.0,0.0,0.0,0.0,0.0,0.0,0.0,0.0,0.0,0.0,0.0,0.0,0.0,0.0,0.0,0.0,0.0,0.0,0.0,0.0,0.0,0.0,0.0,0.0,0.0,1.2613,1.1355,0.962,0.8662,0.8865,0.9527,0.9846,0.9699,0.0,0.0,0.0,0.0,0.0,0.0,0.0,0.0,0.0,0.0,0.0,0.0,0.0,0.0,0.0,0.0,0.0,0.0,0.0,0.0,0.0,0.0,0.0,0.0,0.0,0.0,0.0,0.0,0.0,0.0,0.0,0.0,0.0,0.0,0.0,0.0,0.0,0.0,0.0,0.0,0.0,0.0,0.0,0.0,0.0,0.0,0.0,0.0,0.0,0.0,0.0,0.0,0.0,0.0,0.0,0.0,0.0,0.0,0.0,0.0,0.0,0.0,0.0,0.0,0.0,0.0,0.0,0.0,0.0,0.0,0.0,0.0,0.0,0.0,0.0,0.0,0.0,0.0,0.0,0.0,0.0,0.0,0.0,0.0,0.0,0.0,0.0,0.0,0.0,0.0,0.0,0.0,0.0,0.0,0.0,0.0,0.0,0.0,0.0,0.0,0.0,0.0,0.0,1.2663,1.1893,1.1535,1.0008,0.8915,0.8743,0.9448,0.9689,0.923,0.9072,0.0,0.0,0.0,0.0,0.0,0.0,0.0,0.0,0.0,0.0,0.0,0.0,0.0,0.0,0.0,0.0,0.0,0.0,0.0,0.0,0.0,0.0,0.0,0.0,0.0,0.0,0.0,0.0,0.0,0.0,0.0,0.0,0.0,0.0,0.0,0.0,0.0,0.0,0.0,0.0,0.0,0.0,0.0,0.0,0.0,0.0,0.0,0.0,0.0,0.0,0.0,0.0,0.0,0.0,0.0,0.0,0.0,0.0,0.0,0.0,0.0,0.0,0.0,0.0,0.0,0.0,0.0,0.0,0.0,0.0,0.0,0.0,0.0,0.0,0.0,0.0,0.0,0.0,0.0,0.0,0.0,0.0,0.0,0.0,0.0,0.0,0.0,0.0,0.0,0.0,0.0,0.0,0.0,0.0,0.0,0.0,0.0,0.0,0.0,0.0,0.0,0.0,1.26,1.183,1.2168,1.0476,0.9115,0.8615,0.9156,0.9252,0.8623,0.9133,0.0,0.0,0.0,0.0,0.0,0.0,0.0,0.0,0.0,0.0,0.0,0.0,0.0,0.0,0.0,0.0,0.0,0.0,0.0,0.0,0.0,0.0,0.0,0.0,0.0,0.0,0.0,0.0,0.0,0.0,0.0,0.0,0.0,0.0,0.0,0.0,0.0,0.0,0.0,0.0,0.0,0.0,0.0,0.0,0.0,0.0,0.0,0.0,0.0,0.0,0.0,0.0,0.0,0.0,0.0,0.0,0.0,0.0,0.0,0.0,0.0,0.0,0.0,0.0,0.0,0.0,0.0,0.0,0.0,0.0,0.0,0.0,0.0,0.0,0.0,0.0,0.0,0.0,0.0,0.0,0.0,0.0,0.0,0.0,0.0,0.0,0.0,0.0,0.0,0.0,0.0,0.0,0.0,0.0,0.0,0.0,0.0,0.0,0.0,0.0,0.0,0.0,1.3053,1.2699,1.2264,1.034,0.8955,0.8538,0.8832,0.8886,0.8525,0.9251,0.0,0.0,0.0,0.0,0.0,0.0,0.0,0.0,0.0,0.0,0.0,0.0,0.0,0.0,0.0,0.0,0.0,0.0,0.0,0.0,0.0,0.0,0.0,0.0,0.0,0.0,0.0,0.0,0.0,0.0,0.0,0.0,0.0,0.0,0.0,0.0,0.0,0.0,0.0,0.0,0.0,0.0,0.0,0.0,0.0,0.0,0.0,0.0,0.0,0.0,0.0,0.0,0.0,0.0,0.0,0.0,0.0,0.0,0.0,0.0,0.0,0.0,0.0,0.0,0.0,0.0,0.0,0.0,0.0,0.0,0.0,0.0,0.0,0.0,0.0,0.0,0.0,0.0,0.0,0.0,0.0,0.0,0.0,0.0,0.0,0.0,0.0,0.0,0.0,0.0,0.0,0.0,0.0,0.0,0.0,0.0,0.0,0.0,0.0,0.0,0.0,0.0,1.2494,1.1878,0.0,0.9855,0.8415,0.8388,0.8873,0.8997,0.853,0.0,0.0,0.0,0.0,0.0,0.0,0.0,0.0,0.0,0.0,0.0,0.0,0.0,0.0,0.0,0.0,0.0,0.0,0.0,0.0,0.0,0.0,0.0,0.0,0.0,0.0,0.0,0.0,0.0,0.0,0.0,0.0,0.0,0.0,0.0,0.0,0.0,0.0,0.0,0.0,0.0,0.0,0.0,0.0,0.0,0.0,0.0,0.0,0.0,0.0,0.0,0.0,0.0,0.0,0.0,0.0,0.0,0.0,0.0,0.0,0.0,0.0,0.0,0.0,0.0,0.0,0.0,0.0,0.0,0.0,0.0,0.0,0.0,0.0,0.0,0.0,0.0,0.0,0.0,0.0,0.0,0.0,0.0,0.0,0.0,0.0,0.0,0.0,0.0,0.0,0.0,0.0,0.0,0.0,0.0,0.0,0.0,0.0,0.0,0.0,0.0,0.0,1.3201,1.2281,1.1583,0.0,0.9583,0.8229,0.8213,0.8767,0.8924,0.8468,0.0,0.0,0.0,0.0,0.0,0.0,0.0,0.0,0.0,0.0,0.0,0.0,0.0,0.0,0.0,0.0,0.0,0.0,0.0,0.0,0.0,0.0,0.0,0.0,0.0,0.0,0.0,0.0,0.0,0.0,0.0,0.0,0.0,0.0,0.0,0.0,0.0,0.0,0.0,0.0,0.0,0.0,0.0,0.0,0.0,0.0,0.0,0.0,0.0,0.0,0.0,0.0,0.0,0.0,0.0,0.0,0.0,0.0,0.0,0.0,0.0,0.0,0.0,0.0,0.0,0.0,0.0,0.0,0.0,0.0,0.0,0.0,0.0,0.0,0.0,0.0,0.0,0.0,0.0,0.0,0.0,0.0,0.0,0.0,0.0,0.0,0.0,0.0,0.0,0.0,0.0,0.0,0.0,0.0,0.0,0.0,0.0,0.0,0.0,0.0,0.0,0.0,1.2564,1.262,1.2217,1.095,0.9608,0.8577,0.8038,0.8425,0.8584,0.0,0.0,0.0,0.0,0.0,0.0,0.0,0.0,0.0,0.0,0.0,0.0,0.0,0.0,0.0,0.0,0.0,0.0,0.0,0.0,0.0,0.0,0.0,0.0,0.0,0.0,0.0,0.0,0.0,0.0,0.0,0.0,0.0,0.0,0.0,0.0,0.0,0.0,0.0,0.0,0.0,0.0,0.0,0.0,0.0,0.0,0.0,0.0,0.0,0.0,0.0,0.0,0.0,0.0,0.0,0.0,0.0,0.0,0.0,0.0,0.0,0.0,0.0,0.0,0.0,0.0,0.0,0.0,0.0,0.0,0.0,0.0,0.0,0.0,0.0,0.0,0.0,0.0,0.0,0.0,0.0,0.0,0.0,0.0,0.0,0.0,0.0,0.0,0.0,0.0,0.0,0.0,0.0,0.0,0.0,0.0,0.0,0.0,0.0,0.0,0.0,0.0,0.0,1.2811,1.2722,1.2217,1.095,0.9608,0.8577,0.8038,0.8244,0.8387,0.8296,0.0,0.0,0.0,0.0,0.0,0.0,0.0,0.0,0.0,0.0,0.0,0.0,0.0,0.0,0.0,0.0,0.0,0.0,0.0,0.0,0.0,0.0,0.0,0.0,0.0,0.0,0.0,0.0,0.0,0.0,0.0,0.0,0.0,0.0,0.0,0.0,0.0,0.0,0.0,0.0,0.0,0.0,0.0,0.0,0.0,0.0,0.0,0.0,0.0,0.0,0.0,0.0,0.0,0.0,0.0,0.0,0.0,0.0,0.0,0.0,0.0,0.0,0.0,0.0,0.0,0.0,0.0,0.0,0.0,0.0,0.0,0.0,0.0,0.0,0.0,0.0,0.0,0.0,0.0,0.0,0.0,0.0,0.0,0.0,0.0,0.0,0.0,0.0,0.0,0.0,0.0,0.0,0.0,0.0,0.0,0.0,0.0,0.0,0.0,0.0,0.0,0.0,1.291,1.2882,1.2349,1.1012,0.9863,0.8897,0.8183,0.8292,0.8329,0.8181,0.0,0.0,0.0,0.0,0.0,0.0,0.0,0.0,0.0,0.0,0.0,0.0,0.0,0.0,0.0,0.0,0.0,0.0,0.0,0.0,0.0,0.0,0.0,0.0,0.0,0.0,0.0,0.0,0.0,0.0,0.0,0.0,0.0,0.0,0.0,0.0,0.0,0.0,0.0,0.0,0.0,0.0,0.0,0.0,0.0,0.0,0.0,0.0,0.0,0.0,0.0,0.0,0.0,0.0,0.0,0.0,0.0,0.0,0.0,0.0,0.0,0.0,0.0,0.0,0.0,0.0,0.0,0.0,0.0,0.0,0.0,0.0,0.0,0.0,0.0,0.0,0.0,0.0,0.0,0.0,0.0,0.0,0.0,0.0,0.0,0.0,0.0,0.0,0.0,0.0,0.0,0.0,0.0,0.0,0.0,0.0,0.0,0.0,0.0,0.0,0.0,0.0,1.2886,1.3016,1.2554,1.1141,1.0255,0.9378,0.835,0.8428,0.839,0.808,0.0,0.0,0.0,0.0,0.0,0.0,0.0,0.0,0.0,0.0,0.0,0.0,0.0,0.0,0.0,0.0,0.0,0.0,0.0,0.0,0.0,0.0,0.0,0.0,0.0,0.0,0.0,0.0,0.0,0.0,0.0,0.0,0.0,0.0,0.0,0.0,0.0,0.0,0.0,0.0,0.0,0.0,0.0,0.0,0.0,0.0,0.0,0.0,0.0,0.0,0.0,0.0,0.0,0.0,0.0,0.0,0.0,0.0,0.0,0.0,1.833,0.0,0.0,0.0,0.0,0.0,0.0,0.0,0.0,0.0,0.0,0.0,0.0,0.0,0.0,0.0,0.0,0.0,0.0,0.0,0.0,0.0,0.0,0.0,0.0,0.0,0.0,0.0,0.0,0.0,0.0,0.0,0.0,0.0,0.0,0.0,0.0,0.0,0.0,0.0,0.0,0.0,1.2886,1.3016,1.2514,1.0987,1.0119,0.9208,0.816,0.8388,0.8559,0.8471,0.0,0.0,0.0,0.0,0.0,0.0,0.0,0.0,0.0,0.0,0.0,0.0,0.0,0.0,0.0,0.0,0.0,0.0,0.0,0.0,0.0,0.0,0.0,0.0,0.0,0.0,0.0,0.0,0.0,0.0,0.0,0.0,0.0,0.0,0.0,0.0,0.0,0.0,0.0,0.0,0.0,0.0,0.0,0.0,0.0,0.0,0.0,0.0,0.0,0.0,0.0,0.0,0.0,0.0,0.0,0.0,0.0,0.0,0.0,0.0,0.0,1.8996,0.0,0.0,0.0,0.0,0.0,0.0,0.0,0.0,0.0,0.0,0.0,0.0,0.0,0.0,0.0,0.0,0.0,0.0,0.0,0.0,0.0,0.0,0.0,0.0,0.0,0.0,0.0,0.0,0.0,0.0,0.0,0.0,0.0,0.0,0.0,0.0,0.0,0.0,0.0,0.0,1.3429,1.3264,1.2678,1.1604,1.0498,0.9371,0.8229,0.8328,0.8477,0.8512,0.8899,0.0,0.0,0.0,0.0,0.0,0.0,0.0,0.0,0.0,0.0,0.0,0.0,0.0,0.0,0.0,0.0,0.0,0.0,0.0,0.0,0.0,0.0,0.0,0.0,0.0,0.0,0.0,0.0,0.0,0.0,0.0,0.0,0.0,0.0,0.0,0.0,0.0,0.0,0.0,0.0,0.0,0.0,0.0,0.0,0.0,0.0,0.0,0.0,0.0,0.0,0.0,0.0,0.0,2.279,2.2859,2.2079,2.2455,2.2804,2.2967,2.1465,2.1269,2.1855,0.0,0.0,0.0,0.0,0.0,0.0,0.0,0.0,0.0,0.0,0.0,0.0,0.0,0.0,0.0,0.0,0.0,0.0,0.0,0.0,0.0,0.0,0.0,0.0,0.0,1.967,1.9798,0.0,0.0,0.0,0.0,0.0,0.0,0.0,0.0,0.0,0.0,0.0,0.0,1.4082,1.3458,1.278,1.2248,1.0791,0.9456,0.8378,0.835,0.8441,0.8545,0.9122,0.9585,0.0,0.0,0.0,0.0,0.0,0.0,0.0,0.0,0.0,0.0,0.0,0.0,0.0,0.0,0.0,0.0,0.0,0.0,0.0,0.0,0.0,0.0,0.0,0.0,0.0,0.0,0.0,0.0,0.0,0.0,0.0,0.0,2.3317,2.3539,0.0,0.0,0.0,0.0,0.0,0.0,0.0,0.0,0.0,0.0,0.0,0.0,0.0,2.2077,2.2465,2.4449,2.5231,2.4825,2.6465,2.6645,2.5541,2.5602,2.5515,2.5249,2.4672,0.0,2.2383,2.1719,0.0,0.0,0.0,0.0,0.0,0.0,0.0,0.0,0.0,0.0,0.0,0.0,0.0,0.0,0.0,0.0,0.0,0.0,0.0,0.0,0.0,0.0,2.231,2.1507,2.2285,2.2864,0.0,2.0395,1.9365,1.9184,1.8937,0.0,0.0,0.0,0.0,0.0,0.0,0.0,1.4327,1.3236,1.2339,1.2223,1.0245,0.8794,0.8338,0.8567,0.8873,0.9172,0.9545,1.0033,1.0709,1.0768,0.0,0.0,0.0,0.0,0.0,0.0,0.0,0.0,0.0,0.0,0.0,0.0,0.0,0.0,0.0,0.0,0.0,0.0,0.0,0.0,0.0,0.0,0.0,0.0,0.0,0.0,0.0,0.0,0.0,2.3429,2.4471,2.4066,2.3749,2.3124,0.0,0.0,0.0,0.0,0.0,0.0,0.0,0.0,0.0,2.3933,2.4037,2.4487,2.529,2.6737,2.7327,2.7108,2.813,2.8125,2.7189,2.6766,2.651,2.6332,2.572,2.4996,2.4235,2.334,2.2324,2.1249,0.0,0.0,0.0,0.0,1.8849,1.8818,1.9736,1.9925,0.0,0.0,0.0,0.0,0.0,0.0,0.0,0.0,0.0,0.0,0.0,0.0,0.0,2.3305,2.4047,2.4602,2.3725,2.306,2.2358,0.0,2.1214,2.0854,1.9696,0.0,0.0,0.0,0.0,0.0,1.4447,1.3343,1.2386,1.2071,1.0187,0.8733,0.8165,0.8657,0.9053,0.9292,1.0082,1.0685,1.1047,1.1628,1.1866,0.0,0.0,0.0,0.0,0.0,0.0,0.0,0.0,0.0,0.0,0.0,0.0,0.0,0.0,0.0,0.0,0.0,0.0,0.0,0.0,0.0,0.0,0.0,0.0,0.0,0.0,0.0,0.0,2.5954,2.665,2.584,2.6165,2.5745,0.0,0.0,0.0,0.0,0.0,0.0,2.6141,2.5693,2.5717,2.6429,2.6528,2.7018,2.8007,2.8634,2.8903,2.888,2.9215,2.9001,2.8256,2.7526,2.7074,2.686,2.6038,2.5693,2.562,2.4453,2.3516,2.2754,2.2081,2.1253,2.0468,2.1016,2.0938,2.0723,2.1699,2.2051,2.2012,2.1776,0.0,2.121,2.0371,0.0,0.0,0.0,0.0,2.2598,2.3535,2.3867,2.4004,2.4199,2.4898,2.5367,2.4727,2.4746,2.454,0.0,2.318,2.2832,2.1227,0.0,0.0,0.0,0.0,1.4656,1.4714,1.3426,1.236,1.2021,1.0121,0.8744,0.8387,0.8805,0.9251,0.9624,1.0452,1.0981,1.1116,1.2224,1.2565,1.1985,0.0,0.0,0.0,0.0,0.0,0.0,0.0,0.0,0.0,0.0,0.0,0.0,0.0,0.0,0.0,0.0,0.0,0.0,0.0,0.0,0.0,0.0,0.0,0.0,0.0,0.0,0.0,0.0,0.0,3.1103,3.1478,0.0,0.0,0.0,0.0,2.788,2.7905,2.8406,2.9507,2.8992,2.9353,3.0827,3.0144,2.9988,3.0419,3.0217,3.0102,3.0102,3.0125,2.976,2.9001,2.8279,2.7573,2.686,2.6038,2.5693,2.5615,2.4742,2.4121,2.3722,2.3545,2.2794,2.188,2.2595,2.2673,2.2362,2.2461,2.248,2.2518,2.2908,2.2479,2.1914,2.2246,2.2109,0.0,0.0,2.3337,2.3711,2.3769,2.4082,2.4297,2.3906,2.4496,2.5121,2.5063,2.4727,2.441,0.0,2.4023,2.3388,2.215,0.0,1.8225,1.7259,1.5901,1.5066,1.5311,1.3352,1.2007,1.2183,0.9868,0.8599,0.928,0.9186,0.9546,1.0558,1.0517,1.0575,1.0901,1.2019,1.2394,1.1916,1.3286,0.0,0.0,0.0,0.0,0.0,0.0,0.0,0.0,0.0,0.0,0.0,0.0,0.0,0.0,0.0,0.0,0.0,0.0,0.0,0.0,0.0,0.0,0.0,0.0,0.0,0.0,0.0,0.0,3.2754,3.3748,0.0,3.1426,3.1584,3.1882,3.1969,3.2247,3.2974,3.4318,3.3497,3.3236,3.3687,3.2521,3.1871,3.1809,3.0744,3.0377,3.0698,3.0354,3.0057,2.976,2.856,2.7857,2.7573,2.6788,2.6452,2.65,2.6965,2.6443,2.5355,2.5304,2.5163,2.4966,2.475,2.4896,2.5087,2.4253,2.4305,2.4591,2.4156,2.3349,2.2614,2.3036,2.2918,2.2849,2.3708,2.3867,2.4039,2.5025,2.4835,2.4467,2.4808,2.5191,2.543,2.516,2.5176,2.5249,2.5249,2.4473,2.3591,2.2897,2.0841,1.8924,1.7758,1.6264,1.5351,1.5608,1.3466,1.2007,1.2303,1.0096,0.8736,0.8996,1.0062,1.0649,1.0509,1.1261,1.1444,1.0929,1.1982,1.2394,1.1907,1.3134,1.3441,0.0,0.0,0.0,0.0,0.0,0.0,0.0,0.0,0.0,0.0,0.0,0.0,0.0,0.0,0.0,0.0,0.0,0.0,0.0,0.0,0.0,0.0,0.0,0.0,0.0,0.0,3.4824,3.4201,3.5879,3.6137,3.3753,3.4629,3.5249,3.4948,3.5422,3.6048,3.6871,3.6411,3.5861,3.5343,3.4229,3.3254,3.2509,3.111,3.0536,3.0744,3.0354,3.0193,3.017,2.8932,2.8373,2.8326,2.7597,2.7289,2.7333,2.8126,2.7944,2.7182,2.7373,2.7433,2.7299,2.6775,2.6557,2.636,2.5197,2.5176,2.5594,2.5125,2.4493,2.395,2.4151,2.4186,2.4267,2.4842,2.4924,2.5108,2.6203,2.5753,2.5099,2.546,2.5521,2.543,2.516,2.5293,2.5542,2.5654,2.4922,2.4163,2.3893,2.1971,2.0042,1.8764,1.7281,1.6223,1.6,1.4169,1.2763,1.2423,1.0765,0.9537,0.9214,1.0541,1.1191,1.0708,1.1521,1.1648,1.0816,1.1847,1.2305,1.2043,1.3288,1.3604,1.2916,0.0,0.0,0.0,0.0,0.0,0.0,0.0,0.0,0.0,0.0,0.0,0.0,0.0,0.0,0.0,0.0,0.0,0.0,0.0,0.0,0.0,0.0,0.0,3.3697,3.5851,3.7032,3.5818,3.8157,3.889,3.6364,3.7442,3.7882,3.6845,3.7254,3.7371,3.7037,3.7454,3.7131,3.5911,3.5366,3.4287,3.2583,3.1445,3.0691,3.0216,3.0193,3.0193,3.017,2.9439,2.9094,2.9069,2.835,2.8045,2.8068,2.8068,2.8511,2.9228,2.9695,2.9399,2.8745,2.8604,2.7572,2.6139,2.5255,2.5097,2.5381,2.5786,2.5936,2.5912,2.5708,2.5934,2.6259,2.6256,2.6587,2.6998,2.7264,2.6769,2.611,2.5726,2.5351,2.5082,2.5082,2.5082,2.5219,2.562,2.5371,2.5082,2.5082,2.3383,2.1582,2.0299,1.8949,0.0,1.6481,1.5432,1.4189,1.2604,1.1814,1.1016,0.9994,1.0609,1.1082,1.1174,1.1264,1.1099,1.063,1.1556,1.2146,1.2303,1.3796,1.4399,1.4107,0.0,0.0,0.0,0.0,0.0,0.0,0.0,0.0,0.0,0.0,0.0,0.0,0.0,0.0,0.0,0.0,0.0,0.0,0.0,0.0,0.0,0.0,3.7467,3.6411,3.8091,3.9511,3.9733,4.0907,4.1408,4.0696,4.1008,4.0997,4.0345,3.9326,3.8939,3.9402,3.8428,3.7617,3.7113,3.5909,3.4727,3.3667,3.1823,3.0855,3.0767,3.0377,3.0193,3.017,2.9439,2.9094,2.9093,2.8885,2.9001,2.9347,2.9913,3.0489,3.0882,2.9753,2.9502,2.9781,2.9534,2.8903,2.8095,2.7704,2.7557,2.7432,2.6433,2.6574,2.71,2.6888,2.714,2.7592,2.7936,2.7848,2.7746,2.8024,2.7137,2.6226,2.6318,2.5701,2.5082,2.5082,2.5082,2.5219,2.562,2.5371,2.5082,2.5082,2.359,2.1933,2.0645,1.9065,0.0,1.6704,1.5545,1.4327,1.3104,1.2284,1.1416,1.0352,1.1157,1.151,1.1005,1.1371,1.1281,1.0621,1.1184,1.1849,1.258,1.34,1.3905,0.0,0.0,0.0,0.0,0.0,0.0,0.0,0.0,0.0,0.0,0.0,0.0,0.0,0.0,0.0,0.0,0.0,0.0,0.0,0.0,0.0,0.0,3.8869,4.0703,4.0546,4.142,4.2249,4.2726,4.3227,4.3381,4.3031,4.3103,4.2758,4.1784,4.087,4.0374,4.0416,3.9332,3.827,3.7319,3.6178,3.4897,3.3426,3.1955,3.1034,3.0652,3.0331,3.0306,3.0487,3.0057,2.9988,0.0,3.0193,3.0329,3.0623,3.1085,3.1289,0.0,0.0,0.0,0.0,0.0,2.9607,2.9289,2.8628,2.8444,2.8387,2.7681,2.7995,2.8611,2.8359,2.8634,2.9105,2.9397,2.9262,2.915,2.9645,2.8743,2.7672,2.753,2.6643,2.5761,2.5423,2.5352,2.543,2.5659,2.5503,0.0,2.5352,2.402,2.2481,2.1068,1.974,1.8432,1.7089,1.6369,1.5473,1.4168,1.3727,1.2836,1.1207,1.1827,0.0,0.0,0.0,1.1258,1.0635,1.1249,0.0,0.0,0.0,1.3857,1.409,0.0,0.0,0.0,1.4695,1.4001,0.0,0.0,0.0,0.0,0.0,0.0,0.0,0.0,0.0,0.0,0.0,0.0,0.0,0.0,0.0,0.0,4.2224,4.388,4.5095,4.5169,4.5002,4.4728,4.4875,4.4694,4.3944,4.399,4.349,4.1982,4.1834,4.1377,4.0421,0.0,0.0,0.0,0.0,3.4869,3.251,3.203,3.1254,3.0193,3.0261,3.0487,3.0892,3.0959,3.125,3.1717,3.1717,3.1739,3.1783,3.1645,3.131,3.0927,3.1326,3.1592,3.1521,3.0288,3.0045,3.0149,2.8795,0.0,0.0,2.8909,2.9498,3.0095,2.9729,3.0133,3.071,3.071,3.0663,3.075,3.142,3.0685,2.9579,2.8735,2.7708,2.6659,2.5834,2.564,2.5659,2.5698,2.5693,2.5693,2.5693,2.4488,2.3025,2.1484,2.0575,1.9345,1.7463,1.7421,1.699,1.5363,0.0,0.0,1.2363,1.2443,1.2173,1.1096,1.1182,1.1068,1.0613,1.1564,1.2451,1.3128,1.377,1.4139,1.4193,1.4205,1.5364,1.7527,1.5986,1.4831,0.0,0.0,0.0,0.0,0.0,0.0,0.0,0.0,0.0,0.0,0.0,0.0,0.0,0.0,0.0,4.1789,4.4731,4.6935,4.6924,4.7416,4.6979,4.495,4.4508,4.4327,4.4136,4.375,4.3329,4.3011,4.1478,4.0466,4.0242,3.8533,3.7081,3.6098,3.5976,3.4805,3.251,3.2391,3.1632,3.0193,0.0,0.0,3.0892,3.1339,3.1582,3.1717,3.1717,3.1915,3.2198,3.1344,3.1145,3.1302,3.0591,3.0826,3.1463,3.0764,3.1055,3.158,3.0143,2.9893,2.9885,2.7883,2.8772,3.042,2.9477,3.0531,0.0,3.2023,3.1685,3.1258,3.1021,3.0344,2.9347,2.7855,2.7195,2.6592,2.5457,2.5219,2.5293,2.564,2.5693,2.5693,2.5693,2.4233,2.2701,2.1753,2.0164,1.8614,1.7361,1.7421,1.6951,1.5295,1.5394,1.4946,1.3357,1.2539,1.2033,1.1802,1.1267,1.0853,1.0619,1.2067,1.2859,1.2797,1.3657,1.4337,1.4839,1.4827,1.4841,1.4845,1.4498,1.4262,0.0,0.0,0.0,0.0,0.0,0.0,0.0,0.0,0.0,0.0,0.0,4.0283,0.0,0.0,4.4762,4.5538,4.7225,4.8517,4.8733,4.861,4.8029,4.6748,4.6118,4.5647,4.5232,4.4574,4.3966,4.3349,4.1655,4.0526,4.0235,3.8771,3.7603,3.6872,3.6554,3.5552,3.3824,3.319,3.2244,3.0937,3.1183,3.1405,3.1673,3.1937,3.2179,3.2397,3.2397,3.2528,3.2698,3.1846,3.1646,3.1765,3.0988,3.1346,3.2201,3.1361,3.1377,3.1617,3.0343,3.0204,3.0358,2.8854,2.9766,3.1314,3.0531,3.1455,3.277,3.277,3.2524,3.2187,3.1631,3.1285,3.0528,2.841,2.7868,2.7361,2.575,2.541,2.5469,2.5659,2.5693,2.5693,2.5693,2.414,2.2634,2.182,2.0426,1.8893,1.7387,1.7326,1.7013,1.6006,1.5917,1.5505,1.4387,1.3019,1.2193,1.2193,1.1374,1.0801,1.0607,1.1946,1.2597,1.2341,1.3626,1.4444,1.4745,1.5277,1.5372,1.5043,1.5134,1.534,0.0,0.0,0.0,0.0,0.0,0.0,0.0,0.0,3.9546,4.1777,4.3013,4.4072,4.5219,4.6578,4.7927,4.9177,4.9283,4.9424,5.0015,4.9239,4.8578,4.8515,4.7655,4.6793,4.6064,4.5245,4.4339,4.3369,4.1832,4.071,4.0235,3.9141,3.8239,3.764,3.7126,3.6329,3.5142,3.4027,3.2943,3.1869,3.1849,3.2025,3.24,3.2509,3.2748,3.309,3.309,3.304,3.2914,3.2516,3.2315,3.2169,3.1838,3.2286,3.2964,3.1959,3.1612,3.1607,3.0608,3.0498,3.0708,3.024,3.098,3.2005,3.1625,3.2255,3.3065,3.2964,3.2939,3.2788,3.2215,3.202,3.1472,2.9327,2.8651,2.8004,2.6284,2.5815,2.5693,2.5693,2.5693,2.5693,2.5693,2.4264,2.281,2.1845,2.0631,1.9217,1.7413,1.7206,1.7033,1.666,1.6444,1.5953,1.5096,1.3696,1.271,1.2419,1.1761,1.1281,1.0955,1.2109,1.2662,1.2439,1.3864,1.4646,1.4778,1.5671,1.6148,1.6226,1.6389,1.652,0.0,0.0,0.0,3.8986,3.9255,3.9889,0.0,0.0,4.5159,4.6656,4.8246,4.9334,4.9151,4.9833,5.0469,5.0654,5.0293,5.0015,5.0083,4.9427,4.8814,4.8531,4.6965,4.5715,4.5277,4.4167,4.3448,4.3309,4.1449,4.0274,4.0187,3.8307,3.7151,3.7003,3.6866,3.6329,3.5286,3.4494,3.3557,3.2494,3.2373,3.2356,3.2422,3.281,3.3047,3.309,3.309,3.2813,3.234,3.2813,3.2667,3.2265,3.2738,3.2989,3.3014,3.2365,3.2441,3.2813,3.2164,3.1697,3.1315,3.0844,3.109,3.1582,3.1582,3.2297,3.2989,3.2466,3.2315,3.219,3.1637,3.1069,3.0468,2.9744,2.8627,2.7552,2.6907,2.6207,2.5693,2.5693,2.5693,2.5693,2.5693,2.4726,2.3452,2.1937,2.0143,1.8504,1.7336,1.7206,1.6991,1.6404,1.631,1.5875,1.4822,1.4556,1.3871,1.2492,1.292,1.2912,1.2225,1.3635,1.4286,1.3958,1.4624,1.5222,1.5742,1.5991,1.6389,1.699,1.7302,1.6374,3.6864,0.0,0.0,0.0,4.2563,4.4003,4.6855,4.7122,4.7325,4.932,5.0566,5.0971,5.0001,5.1175,5.203,0.0,5.0887,5.0744,5.0744,4.9729,4.863,4.7691,4.6639,4.5863,4.5497,4.4421,4.3503,4.2819,4.1136,4.0138,4.0138,3.9178,3.845,3.8073,3.8032,3.7449,3.6234,3.5586,3.4648,3.3467,3.3407,3.3176,3.2788,3.3004,3.3266,3.3567,3.3241,3.3294,3.3624,3.3244,3.3319,3.3624,3.3266,3.3291,3.3445,3.2541,3.2365,3.2491,3.1938,3.1814,3.1811,3.1037,3.1543,3.2258,3.1403,3.1794,3.2516,3.2269,3.2194,3.2102,3.1605,3.1528,3.1063,2.9126,2.8619,2.8156,2.6561,2.6158,2.6035,2.5757,2.5693,2.5693,2.5693,2.4799,2.3719,2.2584,2.0784,1.8996,1.7387,1.702,1.6673,1.6072,1.6019,1.5822,1.5393,1.4951,1.4424,1.3775,1.3595,1.331,1.2888,1.3862,1.4293,1.4043,1.5245,1.5878,1.5909,1.7259,1.7826,1.7707,1.8694,1.8201,3.8964,0.0,0.0,4.324,4.523,4.7056,4.8436,4.8667,4.9172,5.1148,5.2036,5.2079,5.0932,5.2218,5.3058,5.1904,5.1603,5.1438,5.1235,5.0119,4.8722,4.7158,4.6659,4.6134,4.5369,4.4421,4.354,4.2689,4.1244,4.0312,4.0138,3.9605,3.9078,3.8629,3.846,3.7985,3.7165,3.6385,3.5548,3.4605,3.4251,3.3857,3.3368,3.3176,3.3316,3.3646,3.3266,3.3621,3.4424,3.347,3.3721,3.4603,3.3517,3.3517,3.3997,3.2867,3.2466,3.239,3.1989,3.1947,3.1996,3.1568,3.1912,3.2293,3.1446,3.1565,3.1964,3.1792,3.1968,3.2106,3.1599,3.1534,3.1178,2.9534,2.8805,2.8184,2.6976,2.6552,2.6289,2.5952,2.5796,2.5693,2.5693,2.4799,2.3818,2.301,2.1311,1.9475,1.7746,1.7039,1.654,1.6088,1.6048,1.6048,1.6048,1.5565,1.5128,1.4823,1.4473,1.4064,1.3626,1.4273,1.4686,1.4744,1.5892,1.6545,1.6647,1.8256,1.8887,1.8573,1.9737,1.9754,0.0,0.0,4.0933,4.5085,4.6752,4.7949,5.0199,5.1045,5.1578,5.2224,5.2987,5.3412,5.2901,5.3344,5.3608,5.3116,5.2608,5.2029,5.1302,5.0541,4.9334,4.7336,4.7084,4.6325,0.0,4.3693,4.3319,4.328,4.19,4.0797,4.0216,3.8771,3.7962,3.7934,3.7344,3.7316,3.7858,3.6633,3.5971,3.5931,3.4688,3.411,3.4068,3.339,3.3115,3.3115,3.3115,3.3416,3.3872,3.3341,3.3721,3.4603,3.3517,3.3746,3.4552,3.3467,3.3065,3.3065,3.3065,3.2457,3.1869,3.2742,3.2047,3.1027,3.1899,3.1817,3.1311,3.0789,3.1391,3.2089,3.1541,3.0438,2.9966,3.1822,2.9306,2.7008,2.8887,2.779,2.6412,2.6367,2.601,2.5693,2.5693,2.4799,2.3818,2.301,2.1311,1.9666,1.8498,1.7392,1.67,1.6673,1.6673,1.6673,1.6673,1.6648,1.6205,1.5146,1.5795,1.5738,1.4688,1.5367,1.6113,1.6899,1.6644,1.7168,1.8523,1.8645,1.904,1.9678,2.0098,2.0275,0.0,0.0,4.4687,4.7232,4.8894,5.0275,5.1561,5.2121,5.2403,5.263,5.1634,5.0413,4.9377,4.9718,5.0161,5.0188,5.0952,5.1472,5.1235,5.0382,4.9071,4.7176,4.6502,0.0,0.0,0.0,0.0,4.2081,4.1028,4.0331,4.0127,3.9499,3.8994,3.8572,3.7954,3.7484,3.7307,3.6875,3.6449,3.5991,3.4709,3.3878,3.3432,3.3197,3.347,3.4148,3.3796,3.4371,3.5477,3.455,3.4826,3.5728,3.46,3.4377,3.4603,3.3897,3.3416,3.3047,3.2748,3.2615,3.2571,3.2288,3.2228,3.2243,3.1854,3.1838,3.1888,3.1692,3.1918,3.2181,3.2084,3.1516,3.0964,3.1159,2.9711,2.8396,2.8616,2.7678,2.6719,2.6445,2.601,2.5693,2.5693,2.4799,2.3395,2.1336,2.0019,1.8841,1.7746,1.7265,1.6953,1.6727,1.67,1.67,1.67,1.67,1.6456,1.5919,1.6151,1.6042,1.5465,1.5666,1.6173,1.6974,1.7362,1.7895,1.8606,1.9681,2.0033,1.9722,2.0418,2.0591,0.0,4.4361,4.6664,4.8635,5.0182,5.1405,5.2113,5.2301,5.2449,5.2621,5.0549,4.8488,4.7701,4.7651,4.7752,4.7747,4.9018,5.0119,5.0389,4.9591,4.8489,4.7209,4.6354,0.0,0.0,0.0,0.0,4.2081,4.143,4.0867,4.0466,4.0183,3.9666,3.893,3.8263,3.7709,3.7316,3.711,3.6547,3.5649,3.4812,3.4084,3.3454,3.3399,3.3878,3.4733,3.4363,3.4901,3.6006,3.5079,3.5378,3.6304,3.5152,3.4828,3.4904,3.4173,3.3671,3.3323,3.2819,3.2615,3.2528,3.2091,3.2098,3.2179,3.1663,3.1712,3.1913,3.1913,3.2043,3.2206,3.2304,3.1811,3.1235,3.1089,2.9928,2.8844,2.8742,2.7841,2.6908,2.666,2.6108,2.5693,2.5693,2.4799,2.3195,2.0508,1.9606,1.8806,1.751,1.7327,1.726,1.7034,1.7021,1.7021,1.7021,1.7021,1.6926,1.6632,1.6511,1.6299,1.6005,1.6147,1.6598,1.7372,1.8118,1.8787,1.942,2.0494,2.0787,2.0385,2.0809,2.084,4.3994,4.5735,4.6967,4.9304,5.0585,5.1341,5.1818,5.1786,5.1745,5.2066,4.9695,4.7557,0.0,0.0,4.6446,4.6014,4.7083,4.8225,4.8951,4.848,4.7857,0.0,0.0,0.0,0.0,0.0,0.0,4.3369,0.0,4.2203,4.1137,4.0641,3.9934,3.893,3.8291,3.7934,3.785,3.7307,3.6342,3.5053,3.5053,3.4724,3.4131,3.4016,3.4314,3.493,3.4816,3.5054,3.5508,3.5004,3.5429,3.6281,3.5203,3.5056,3.5309,3.4301,3.3875,3.3727,3.3269,3.2506,3.1805,3.2269,3.1704,3.0965,3.144,3.1534,3.1507,3.1507,3.1863,3.2265,3.2265,3.1436,3.0832,3.1762,3.0027,2.8411,2.9314,2.8181,2.6973,2.6973,2.6284,2.5693,2.5669,2.4775,2.3195,2.0534,2.0138,1.9476,1.7819,1.7608,1.7608,1.7608,1.7608,1.7608,1.7608,1.7608,1.7474,1.7192,1.6886,1.6567,1.6284,1.6728,1.7349,1.8087,1.8843,1.9784,2.0944,2.1046,2.125,2.16,2.1197,2.1019,4.4633,4.6923,4.9056,4.9487,5.0719,5.1622,5.0941,5.1521,5.1528,4.9104,4.681,4.4774,0.0,0.0,0.0,4.5254,4.7311,0.0,4.9729,4.9928,0.0,0.0,0.0,4.6862,4.5584,4.4901,0.0,0.0,4.3019,4.1693,4.1047,4.0621,3.9934,3.893,3.8713,3.8179,3.7251,3.7082,3.6587,3.575,3.575,3.5406,3.4771,3.4679,3.4954,3.548,3.535,3.5631,3.6155,3.6029,3.613,3.638,3.608,3.5319,3.4398,3.4465,3.3776,3.2813,3.3032,3.2702,3.2223,3.2356,3.2215,3.2092,3.2567,3.2682,3.2663,3.2663,3.2763,3.2889,3.2889,3.2394,3.2077,3.272,3.0919,2.9231,2.9821,2.8173,2.6543,2.6543,2.6089,2.5552,2.5162,2.4554,2.332,2.1046,2.0354,1.9476,1.7819,1.7608,1.7608,1.7608,1.7608,1.7608,1.7608,1.7608,1.7394,1.6847,1.674,1.6473,1.5941,1.6616,1.7349,1.8087,1.9066,2.0225,2.1507,2.1815,2.1884,2.1675,2.1577,2.115,4.6904,4.8682,5.0241,5.0109,5.0701,5.0916,4.9365,4.961,4.9455,4.6975,4.471,0.0,0.0,0.0,0.0,0.0,0.0,0.0,4.8951,4.9066,4.881,0.0,4.7787,0.0,4.591,4.5481,4.5185,0.0,4.3617,4.257,4.1909,4.1381,4.0653,3.9718,3.9416,3.8825,3.7841,3.756,3.7056,3.6387,3.612,3.581,3.5426,3.5324,3.557,3.6127,0.0,3.6081,3.6405,3.6405,3.6405,3.6405,3.6405,3.569,3.4638,3.446,3.3839,3.3049,3.2866,3.264,3.24,3.24,3.24,3.2466,3.2702,3.2939,3.3047,3.2831,3.2525,3.2283,3.2463,3.2034,3.1738,3.2207,3.0823,2.9434,2.9547,2.791,2.6328,2.6133,2.5874,2.5547,2.499,2.4455,2.3495,2.1692,2.0662,1.9606,1.8304,1.7819,1.7608,1.7608,1.7608,1.7608,1.7608,1.7608,1.7461,1.7114,1.6847,1.6553,1.6208,1.7023,1.7676,1.8087,1.973,2.1025,2.1918,2.2593,2.2894,2.2827,2.2424,2.1925,4.9422,5.0334,5.0845,5.0678,5.0538,4.9849,4.7554,4.7123,4.6746,4.5203,0.0,0.0,4.2551,0.0,4.2291,4.2856,0.0,4.5413,4.7718,4.7458,4.7347,4.818,4.7768,4.6893,4.555,4.5424,4.5134,4.4415,4.4275,4.3808,4.2939,4.2283,4.1548,4.0709,4.0034,3.9416,3.893,3.8235,3.7529,3.6791,3.6358,3.6031,3.5858,3.5831,3.6096,3.6563,0.0,0.0,3.6405,3.6405,3.6405,3.6381,3.631,3.584,3.5125,3.4283,3.3828,3.3501,3.2744,3.2558,3.2608,3.2608,3.2515,3.2422,3.2561,3.2798,3.2918,3.2531,3.1779,3.1178,3.1605,3.1154,3.0692,3.1051,3.0202,2.9183,2.8798,2.7462,2.6191,2.5776,2.5693,2.5552,2.5088,2.4554,2.3768,2.2484,2.1209,2.0019,1.9034,1.8146,1.7608,1.7608,1.7608,1.7608,1.7608,1.7608,1.7595,1.7555,1.7073,1.674,1.67,1.7649,1.8178,1.8232,2.0551,2.1965,2.2399,2.3321,2.3956,2.4292,2.3306,2.2821,4.9224,5.0289,5.1126,5.0083,5.0286,4.9839,4.6414,4.6151,0.0,0.0,0.0,4.1125,4.0618,4.0874,0.0,4.3919,0.0,0.0,0.0,0.0,4.8241,0.0,0.0,0.0,0.0,0.0,0.0,0.0,0.0,4.3343,4.2221,4.1739,4.1269,4.0709,3.9641,3.8994,3.8902,3.8235,3.7306,3.6148,3.6623,3.6243,3.5182,3.6104,3.6293,3.5889,3.6252,0.0,3.6405,3.6405,3.6405,3.6358,3.5931,3.4911,3.3681,3.386,3.3156,3.2169,3.277,3.3261,3.3636,3.3636,3.3074,3.2561,3.338,3.3118,3.2509,3.2422,3.1536,3.0799,3.1516,3.1154,3.0624,3.0692,2.9745,2.8637,2.7959,2.6783,2.5796,2.5718,2.5693,2.5669,2.5596,2.5113,2.4455,2.3576,2.2458,2.1193,1.9653,1.8382,1.7608,1.7608,1.7608,1.7608,1.7608,1.7608,1.7501,1.7286,1.7179,1.6993,1.6714,1.7804,1.8597,1.892,2.1013,2.2518,2.3346,2.3916,2.424,2.4345,2.3098,2.2426,5.0271,5.0971,5.1517,5.0576,5.0039,4.8795,4.5014,0.0,0.0,0.0,0.0,4.0513,4.0331,0.0,0.0,0.0,0.0,0.0,0.0,0.0,0.0,0.0,0.0,0.0,0.0,0.0,0.0,0.0,0.0,4.2994,4.2234,4.1454,4.0752,4.0142,3.9566,3.909,3.8699,3.7775,3.7035,3.6404,3.6103,3.5622,3.5044,3.5831,3.5987,3.5738,3.6206,0.0,3.6405,3.6405,3.6239,3.5979,3.5716,3.5158,3.4456,3.4117,3.3865,3.367,3.3576,3.3698,3.3947,3.4248,3.3792,3.3211,3.3405,3.3164,3.2658,3.2179,3.1269,3.0575,3.0846,3.0583,3.0249,3.0249,2.9159,2.7841,2.6834,2.6123,2.5693,2.5693,2.5693,2.5693,2.5693,2.526,2.4775,2.4387,2.3302,2.2131,2.104,1.9963,1.8878,1.7714,1.7608,1.7608,1.7608,1.7608,1.7555,1.7408,1.7286,1.7318,1.7574,1.8366,1.9235,2.0136,2.1961,2.3389,2.4328,2.5036,2.5536,2.5729,2.4792,2.4091,5.0981,5.1447,5.1814,5.0897,4.968,4.7747,4.4026,4.3123,0.0,0.0,0.0,4.002,4.0497,0.0,0.0,0.0,0.0,0.0,0.0,0.0,0.0,0.0,0.0,0.0,0.0,0.0,0.0,0.0,0.0,0.0,4.2046,4.1184,4.0365,3.9612,3.959,3.9129,3.8149,3.7248,3.6598,3.6204,3.5381,3.4847,3.4632,3.5254,3.5513,3.5513,3.601,0.0,0.0,3.6263,3.6003,3.5596,3.5476,3.5379,3.5184,3.4507,3.4641,3.5096,3.4396,3.411,3.4123,3.4427,3.4173,3.3649,3.3236,3.2974,3.2658,3.1915,3.0981,3.0215,3.0329,2.9916,2.9456,2.929,2.8277,2.706,2.606,2.5932,2.5991,2.5991,2.5913,2.5854,2.5854,2.5415,2.5064,2.5064,2.4091,2.3128,2.2509,2.1692,2.0441,1.8513,1.8055,1.7793,1.7608,1.7608,1.7608,1.7608,1.7394,1.7647,1.8454,1.914,2.0098,2.1406,2.3141,2.4453,2.5262,2.6123,2.6699,2.6986,2.6283,2.5597,4.9864,5.0952,5.1718,5.0056,4.9049,4.7566,4.416,0.0,0.0,0.0,3.9709,3.9764,4.0462,4.0222,0.0,0.0,0.0,0.0,0.0,0.0,0.0,0.0,0.0,0.0,0.0,0.0,0.0,0.0,0.0,0.0,4.0864,4.0737,4.0365,3.9612,3.959,3.8771,3.6955,3.6849,3.5965,3.4344,3.4777,3.4392,3.3308,3.4431,3.4908,3.4818,3.5353,0.0,0.0,3.5884,3.5644,3.5548,3.5042,3.4607,3.4268,3.4598,3.449,3.4183,3.4522,3.4633,3.4552,3.4123,3.3596,3.3201,3.3184,3.2545,3.1827,3.1739,3.051,2.9485,3.0555,2.9508,2.8014,2.7351,2.6834,2.6467,2.6353,2.6621,2.6869,2.6869,2.6602,2.6328,2.6328,2.5947,2.5645,2.5645,2.5113,2.4436,2.3633,2.2634,2.1641,2.0698,1.9435,1.8382,1.7661,1.7608,1.7608,1.7608,1.7582,1.7936,1.8731,2.0041,2.1292,2.2527,2.4516,2.5692,2.6084,2.6679,2.6947,2.6967,2.5695,2.5275,4.8848,4.9922,5.0342,4.9214,4.8226,4.6716,4.3715,0.0,0.0,4.002,3.9795,3.9902,4.0011,3.985,4.0073,0.0,0.0,0.0,0.0,0.0,0.0,0.0,0.0,0.0,0.0,0.0,0.0,0.0,0.0,0.0,4.0688,4.0688,4.0142,3.8993,3.8948,3.8174,3.6553,3.5862,3.5164,3.4466,3.4059,3.3603,3.3136,3.3929,3.4442,3.4703,3.4929,0.0,0.0,3.5771,3.5563,3.5572,3.538,3.5161,3.5014,3.5229,3.5366,3.5422,3.5236,3.4979,3.4603,3.4073,3.352,3.3097,3.3124,3.2657,3.2047,3.1783,3.0959,3.0285,3.0813,2.99,2.8573,2.7503,2.6998,2.6758,2.6758,2.6894,2.6986,2.6986,2.6875,2.6758,2.6758,2.6406,2.6133,2.6133,2.5702,2.5162,2.451,2.4041,2.3352,2.2207,2.0133,1.867,1.8356,1.7898,1.7608,1.7608,1.8042,1.8964,2.0372,2.1412,2.286,2.476,2.5575,2.6365,2.7117,2.7325,2.7539,2.7773,2.6988,2.6404,4.7,4.8211,4.8748,4.8083,4.7009,4.5511,0.0,0.0,4.124,3.9951,3.9852,3.9935,3.9729,3.9608,3.969,4.016,0.0,4.1074,0.0,0.0,0.0,0.0,0.0,0.0,0.0,0.0,0.0,0.0,0.0,0.0,4.0716,4.0494,3.9815,3.8541,3.8319,3.7456,3.5904,3.5102,3.4527,3.4223,3.3467,3.309,3.3115,3.347,3.3947,3.4452,3.4452,0.0,0.0,3.5444,3.5313,3.5375,3.5523,3.5596,3.562,3.5788,3.6073,3.6306,3.5707,3.5132,3.4603,3.4073,3.352,3.309,3.309,3.2766,3.2335,3.2003,3.1458,3.088,3.0416,2.965,2.8731,2.7625,2.728,2.7207,2.7207,2.7305,2.7383,2.7383,2.7285,2.7207,2.7207,2.6758,2.6426,2.6562,2.6069,2.5611,2.5383,2.5091,2.448,2.3377,2.132,1.9746,1.9098,1.8146,1.7714,1.795,1.8781,2.0027,2.1778,2.2959,2.4471,2.6368,2.6683,2.7174,2.7878,2.7878,2.7956,2.8105,2.7702,2.6988,4.3995,4.5608,4.7158,4.6481,4.5232,4.3982,0.0,0.0,4.098,4.0248,3.9897,3.9703,3.9703,3.9359,3.9327,3.9987,4.0056,0.0,0.0,0.0,0.0,0.0,0.0,0.0,0.0,0.0,0.0,0.0,0.0,0.0,4.0716,4.0012,3.9259,3.8518,3.7841,3.6616,3.4728,3.4703,3.4173,3.3115,3.3115,3.309,3.309,3.3115,3.3416,0.0,0.0,0.0,0.0,3.4774,3.4809,3.4859,3.5375,3.5596,3.5668,3.6192,3.6405,3.6306,3.5707,3.5132,3.4603,3.4073,3.352,3.309,3.309,3.2766,3.24,3.24,3.1832,3.0811,2.9065,2.8382,2.7915,2.717,2.737,2.7682,2.7682,2.8015,2.8281,2.8281,2.7976,2.7682,2.7682,2.6979,2.6523,2.6928,2.6264,2.5874,2.6328,2.5528,2.4677,2.4158,2.3352,2.1963,1.9782,1.8382,1.795,1.8748,1.9731,2.1018,2.2617,2.4536,2.6,2.6876,2.7781,2.8281,2.8281,2.8281,2.8093,2.7682,2.7226,2.6537,4.2457,4.3647,4.4277,4.3866,4.318,4.2431,4.1775,0.0,4.0654,3.9954,4.0,3.99,3.92,3.9097,3.927,3.9731,3.9928,0.0,0.0,0.0,0.0,0.0,0.0,0.0,0.0,0.0,0.0,0.0,0.0,0.0,4.0716,3.9502,3.8747,3.8496,3.7841,3.6747,3.5255,3.4879,3.4327,3.3646,3.3291,3.309,3.309,3.309,3.3391,0.0,0.0,0.0,0.0,3.432,3.4402,3.4776,3.5301,3.5525,3.5549,3.5712,3.5782,3.5656,3.4728,3.4299,3.4073,3.3542,3.3492,3.3668,3.3668,3.3043,3.2208,3.136,3.1389,3.1197,2.8866,2.864,2.879,2.7727,2.7819,2.8112,2.8112,2.8203,2.8301,2.8301,2.821,2.8112,2.8112,2.7663,2.733,2.7467,2.6738,2.623,2.6367,2.5824,2.5382,2.5211,2.4165,2.2885,2.1422,2.0743,2.0513,2.0769,2.1835,2.3022,2.4234,2.5716,2.6911,2.7847,2.8143,2.8301,2.8301,2.8034,2.7526,2.6822,2.666,2.6264,0.0,4.1472,4.197,4.2003,4.164,0.0,0.0,0.0,0.0,3.985,3.9866,3.9818,3.9056,3.8846,3.8936,3.9453,3.9665,0.0,0.0,0.0,0.0,0.0,0.0,0.0,0.0,0.0,0.0,0.0,0.0,0.0,4.03,3.9149,3.8387,3.8137,3.7453,3.647,3.523,3.4879,3.4327,3.3596,3.3266,3.309,3.309,3.309,3.3291,0.0,0.0,0.0,0.0,3.3947,3.4098,3.4452,3.5207,3.5382,3.5207,3.5433,3.5357,3.5056,3.4198,3.3897,3.3796,3.3266,3.3467,3.3897,3.3897,3.3444,3.2704,3.1437,3.1274,3.1004,2.8897,2.8698,2.8866,2.8127,2.8132,2.8301,2.8301,2.8301,2.8301,2.8301,2.8301,2.8301,2.8301,2.7976,2.7741,2.7897,2.7168,2.668,2.6881,2.6484,2.6053,2.5701,2.51,2.4305,2.3245,2.2265,2.1836,2.2139,2.3373,2.4474,2.5419,2.6721,2.769,2.8281,2.8144,2.8073,2.8073,2.7506,2.6939,2.6412,2.6211,2.5971,0.0,0.0,0.0,0.0,0.0,0.0,0.0,0.0,0.0,0.0,3.966,3.9498,3.9072,3.8591,3.8472,3.911,3.9327,0.0,0.0,0.0,0.0,0.0,0.0,0.0,0.0,0.0,0.0,0.0,0.0,0.0,3.9662,3.8904,3.8183,3.7523,3.673,3.5803,3.4703,3.4653,3.4123,3.309,3.309,3.309,3.309,3.309,3.309,0.0,0.0,0.0,0.0,3.3621,3.3847,3.3947,3.4979,3.5082,3.4703,3.5182,3.5079,3.4552,3.4022,3.3847,3.3771,3.3366,3.3571,3.4022,3.4048,3.4063,3.3747,3.2347,3.1399,3.0486,2.9127,2.8568,2.8388,2.8388,2.8415,2.8441,2.8388,2.8388,2.8361,2.8308,2.8301,2.8301,2.8301,2.7995,2.7878,2.8242,2.7598,2.7207,2.7643,2.7285,2.6678,2.5755,2.6131,2.6032,2.5053,2.3135,2.229,2.3035,2.4389,2.5489,2.6224,2.753,2.8242,2.8242,2.7858,2.7643,2.7604,2.6803,2.6367,2.6328,2.5893,2.5693,0.0,0.0,0.0,0.0,0.0,0.0,0.0,0.0,0.0,0.0,0.0,3.9367,3.837,3.8609,3.9018,3.9154,3.9327,0.0,0.0,0.0,0.0,0.0,0.0,0.0,0.0,0.0,0.0,0.0,0.0,4.0526,3.9662,3.8904,3.8183,3.7523,3.6352,3.538,3.4703,3.4276,3.3746,3.309,3.309,3.309,3.309,3.309,3.309,0.0,0.0,0.0,3.3115,3.3241,3.3291,3.3366,3.4022,3.4198,3.4098,3.4248,3.4198,3.4022,3.347,3.3291,3.3416,3.4098,3.4678,3.5205,3.5678,3.5487,3.461,3.2286,3.1768,3.1393,2.903,2.8814,2.9217,2.9217,2.9743,3.0031,2.9349,2.9217,2.9032,2.8415,2.8301,2.8301,2.8301,2.8203,2.8184,2.8281,2.7878,2.7585,2.7682,2.7285,2.6805,2.6276,2.6604,2.6487,2.5605,2.5045,2.4849,2.502,2.5995,2.6609,2.6807,2.7467,2.7839,2.7839,2.7383,2.7012,2.6724,2.6509,2.6211,2.5854,2.5757,2.5693,0.0,0.0,0.0,0.0,0.0,0.0,0.0,0.0,0.0,0.0,0.0,0.0,3.824,0.0,0.0,0.0,0.0,0.0,0.0,0.0,0.0,0.0,0.0,0.0,0.0,0.0,0.0,0.0,0.0,3.9881,3.9126,3.8432,3.7704,3.7038,3.5787,3.4981,3.4703,3.4173,3.3621,3.309,3.309,3.309,3.309,3.309,3.309,0.0,0.0,0.0,3.309,3.309,3.309,3.3165,3.3696,3.3746,3.3545,3.3796,3.3746,3.347,3.3215,3.3266,3.3596,3.4427,3.5079,3.5558,3.5906,3.5509,3.4702,3.319,3.2384,3.1556,2.9699,2.9226,2.9226,2.9226,2.96,2.9874,2.9594,2.9226,2.89,2.8616,2.8418,2.8301,2.8301,2.8301,2.8301,2.8301,2.8105,2.7976,2.7976,2.7754,2.7441,2.7037,2.7187,2.6973,2.6113,2.6186,2.6128,2.5737,2.6342,2.6719,2.6719,2.7148,2.7285,2.7115,2.6855,2.6523,2.6094,2.6094,2.5952,2.5693,2.5693,2.5693,0.0,0.0,0.0,0.0,0.0,0.0,0.0,0.0,0.0,0.0,0.0,0.0,0.0,0.0,0.0,0.0,0.0,0.0,0.0,0.0,0.0,0.0,0.0,0.0,0.0,0.0,0.0,0.0,0.0,3.9237,3.8409,3.7821,3.7152,3.6428,3.5378,3.4828,3.4828,3.4123,3.3567,3.309,3.309,3.309,3.309,3.319,3.319,3.3115,0.0,0.0,3.309,3.309,3.309,3.314,3.3596,3.3517,3.3165,3.3596,3.352,3.3241,3.3316,3.3696,3.4223,3.4678,3.5205,3.5656,3.5656,3.511,3.4476,3.4421,3.2954,3.1206,3.0304,2.9586,2.909,2.9195,2.9277,2.9478,2.9743,2.9164,2.8677,2.8973,2.8633,2.832,2.8379,2.834,2.8301,2.8301,2.8301,2.8301,2.8301,2.8301,2.8151,2.7741,2.7741,2.7448,2.6588,2.6875,2.6732,2.5874,2.625,2.6465,2.6387,2.6738,2.6719,2.6289,2.6289,2.6113,2.5693,2.5693,2.5693,2.5693,2.5693,2.5757,3.6849,0.0,0.0,0.0,0.0,0.0,0.0,0.0,0.0,0.0,0.0,0.0,0.0,0.0,0.0,0.0,0.0,0.0,0.0,0.0,0.0,0.0,0.0,0.0,0.0,0.0,0.0,0.0,0.0,3.9015,3.773,3.7569,3.7152,3.6428,3.5732,3.5382,3.5382,3.3947,3.319,3.309,3.309,3.309,3.3115,3.3571,3.352,3.3115,0.0,3.3517,3.309,3.309,3.309,3.3115,3.319,3.3165,3.3115,3.319,3.3467,3.3847,3.4276,3.4803,3.5257,3.5332,3.578,3.6256,3.6256,3.5648,3.4897,3.4907,3.2764,3.0303,2.9358,2.9559,3.0093,3.043,3.1059,3.1433,3.0778,3.0255,2.9843,2.9541,2.8855,2.8398,2.8769,2.8535,2.8301,2.8301,2.8301,2.8301,2.8301,2.8301,2.8151,2.7741,2.8015,2.7851,2.6992,2.7324,2.7233,2.6348,2.668,2.6758,2.6406,2.6445,2.6289,2.5815,2.5815,2.5776,2.5693,2.5693,2.5693,2.5693,2.5693,2.5913,3.6862,3.8496,0.0,0.0,0.0,0.0,0.0,0.0,0.0,0.0,0.0,0.0,0.0,0.0,0.0,0.0,0.0,0.0,0.0,0.0,0.0,0.0,0.0,0.0,0.0,0.0,0.0,0.0,0.0,0.0,3.7546,3.7106,3.6758,3.6405,3.5807,3.5508,3.5508,3.4477,3.3972,3.3972,3.3972,3.3972,3.3972,3.4223,3.4048,3.3567,0.0,3.3617,3.309,3.309,3.309,3.309,3.309,3.3291,3.3567,3.3847,3.4123,3.4402,3.4954,3.5282,3.5583,3.6208,3.6609,3.6884,3.7185,3.591,3.4349,3.4367,3.2735,3.09,3.0462,3.0278,3.0235,3.0434,3.0782,3.103,3.0897,3.0342,2.9813,2.9643,2.9062,2.8613,2.8594,2.8418,2.8301,2.8301,2.8301,2.8301,2.8301,2.8301,2.8223,2.8054,2.8184,2.8047,2.7422,2.778,2.7565,2.6465,2.6348,2.6323,2.6387,2.6172,2.6055,2.6094,2.6094,2.5952,2.5693,2.6186,2.6284,2.6094,2.6303,2.6518,3.7199,3.8854,0.0,0.0,0.0,0.0,0.0,0.0,0.0,0.0,0.0,0.0,0.0,0.0,0.0,0.0,0.0,0.0,0.0,0.0,0.0,0.0,0.0,0.0,0.0,0.0,0.0,0.0,0.0,0.0,3.7268,3.6711,3.6405,3.6405,3.5956,3.5707,3.5707,3.528,3.4954,3.4703,3.4703,3.4703,3.4703,3.4828,3.4527,3.3922,3.4173,3.3822,3.3115,3.3241,3.3291,3.3291,3.3291,3.3617,3.4148,3.4703,3.4904,3.4979,3.5656,3.5907,3.6058,3.7061,3.7411,3.7414,3.7469,3.5825,3.3883,3.3515,3.2468,3.1401,3.1296,3.0736,3.0234,3.0332,3.0351,3.0449,3.082,3.0302,2.9774,2.9891,2.9434,2.9004,2.8769,2.8652,2.8594,2.8594,2.8594,2.8594,2.8594,2.8496,2.8437,2.8437,2.8359,2.8191,2.7878,2.8054,2.7734,2.6783,2.6245,2.6167,2.6523,2.6186,2.6167,2.6523,2.6543,2.6367,2.601,2.6674,2.6855,2.6543,2.6875,2.707,3.8444,3.9803,4.0947,0.0,0.0,0.0,0.0,0.0,0.0,0.0,0.0,0.0,0.0,0.0,0.0,0.0,0.0,0.0,0.0,0.0,0.0,0.0,0.0,0.0,0.0,0.0,0.0,0.0,0.0,0.0,3.6523,3.6428,3.6405,3.6405,3.638,3.6331,3.6331,3.6281,3.5753,3.4703,3.4703,3.4703,3.4728,3.523,3.4879,3.3947,3.4954,3.4502,3.314,3.3621,3.3847,3.3847,3.3847,3.4173,3.4703,3.5232,3.5433,3.5583,3.6709,3.7085,3.7161,3.7764,3.7939,3.7692,3.6364,3.5204,3.4078,3.2687,3.1665,3.0848,3.0407,3.0252,3.0312,3.0742,3.084,3.0859,3.0879,3.0508,3.0273,3.0703,3.0146,2.9657,3.0,2.9755,2.95,2.95,2.95,2.95,2.95,2.9121,2.884,2.884,2.8516,2.8281,2.8262,2.7936,2.7702,2.7604,2.7168,2.6908,2.6973,2.6908,2.6908,2.6973,2.6973,2.6953,2.6889,2.6967,2.6992,2.6973,2.6986,2.7226,3.7814,3.9387,4.0694,0.0,0.0,0.0,0.0,0.0,0.0,0.0,0.0,0.0,0.0,0.0,0.0,0.0,0.0,0.0,0.0,0.0,0.0,0.0,0.0,0.0,0.0,0.0,0.0,0.0,0.0,0.0,3.6428,3.6405,3.6405,3.6405,3.6405,3.6405,3.6405,3.6405,3.618,3.5753,3.5753,3.5753,3.5778,3.5979,3.5629,3.4929,3.5307,3.4979,3.4123,3.4301,3.4377,3.4427,3.4753,3.5029,3.533,3.6208,3.6558,3.6684,3.7437,3.7688,3.7789,3.8391,3.7939,3.7148,3.6944,3.5327,3.3482,3.2917,3.1856,3.0859,3.0684,3.0625,3.0664,3.0859,3.0898,3.0898,3.0898,3.0762,3.0586,3.0488,3.0195,2.9922,2.9852,2.9696,2.9598,2.9598,2.9598,2.9598,2.9598,2.9199,2.8996,2.9297,2.9207,2.8894,2.834,2.866,2.864,2.8112,2.7402,2.7129,2.7402,2.7168,2.7148,2.7448,2.7448,2.7285,2.6986,2.7539,2.7676,2.7422,2.7676,2.8027,3.8081,3.9493,4.0792,0.0,0.0,0.0,0.0,0.0,0.0,0.0,0.0,0.0,0.0,0.0,0.0,0.0,0.0,0.0,0.0,0.0,0.0,0.0,0.0,0.0,0.0,0.0,0.0,0.0,0.0,0.0,0.0,3.6405,3.6405,3.6405,3.6405,3.6405,3.6405,3.6405,3.6405,3.6405,3.6405,3.6405,3.6405,3.6405,3.6056,3.5508,3.5707,3.538,3.4703,3.4879,3.5054,3.5303,3.5832,3.6158,3.6384,3.7161,3.7437,3.7513,3.809,3.8291,3.8341,3.8741,3.8173,3.7261,3.6694,3.5101,3.336,3.2615,3.1681,3.0898,3.0898,3.0898,3.0898,3.0898,3.0898,3.0898,3.0898,3.0898,3.0801,3.0488,3.041,3.0332,3.0067,3.0009,3.0009,3.0009,3.0009,3.0009,3.0009,2.959,2.9394,2.9579,2.9598,2.9364,2.8777,2.9266,2.9344,2.8758,2.8144,2.7832,2.7897,2.7578,2.7559,2.7878,2.7897,2.7715,2.7422,2.8008,2.8171,2.7897,2.8301,2.8652,3.9687,4.0399,0.0,0.0,0.0,0.0,0.0,0.0,0.0,0.0,0.0,0.0,0.0,0.0,0.0,0.0,0.0,0.0,0.0,0.0,0.0,0.0,0.0,0.0,0.0,0.0,0.0,0.0,0.0,0.0,0.0,3.6405,3.6405,3.6405,3.6405,3.6405,3.6405,3.6405,3.6405,3.6405,3.6405,3.6405,3.6405,3.6405,3.6056,3.5533,3.6155,3.5753,3.4753,3.5282,3.5857,3.6457,3.6984,3.7513,3.8015,3.8015,3.8015,3.809,3.8693,3.8894,3.8893,3.8825,3.8788,3.8238,3.5288,3.4376,3.3873,3.1556,3.0898,3.0898,3.0898,3.0898,3.0898,3.0898,3.0898,3.0898,3.0898,3.0898,3.0898,3.0898,3.0898,3.0898,3.0898,3.0898,3.0898,3.0898,3.0898,3.0898,3.0879,3.0488,3.0039,2.9637,2.9598,2.9618,2.9598,2.9598,2.9618,2.9598,2.9598,2.9227,2.834,2.8301,2.8301,2.8301,2.8301,2.8301,2.8301,2.8301,2.8301,2.832,2.873,2.8898,3.8513,0.0,0.0,0.0,0.0,0.0,0.0,0.0,0.0,0.0,0.0,0.0,0.0,0.0,0.0,0.0,0.0,0.0,0.0,0.0,0.0,0.0,0.0,0.0,0.0,0.0,0.0,0.0,0.0,0.0,0.0,3.6405,3.6405,3.6405,3.6405,3.6405,3.6405,3.6405,3.6405,3.6405,3.6405,3.6405,3.6405,3.6405,3.6306,3.6155,3.6306,3.6205,3.5904,3.608,3.6457,3.6984,3.7135,3.7513,3.8065,3.8492,3.8642,3.8718,3.9271,3.9472,3.9394,3.8948,3.7684,3.6104,3.4792,3.3247,3.1796,3.1112,3.0898,3.0957,3.125,3.1328,3.125,3.0957,3.0898,3.0898,3.0898,3.0898,3.0898,3.0898,3.0898,3.0898,3.0898,3.0898,3.0898,3.0898,3.0898,3.0781,3.0449,3.0566,3.0391,2.9676,3.0165,3.0282,2.9657,3.0165,3.0263,2.9637,2.9872,2.9629,2.8769,2.873,2.873,2.873,2.8437,2.8594,2.9227,2.8594,2.8621,2.9207,2.9004,2.9211,3.948,0.0,0.0,0.0,0.0,0.0,0.0,0.0,0.0,0.0,0.0,0.0,0.0,0.0,0.0,0.0,0.0,0.0,0.0,0.0,0.0,0.0,0.0,0.0,0.0,0.0,0.0,0.0,0.0,0.0,0.0,3.6405,3.6405,3.6405,3.6405,3.6405,3.6405,3.6405,3.6405,3.6405,3.6405,3.6405,3.6405,3.6405,3.6405,3.6405,3.6405,3.6405,3.643,3.6632,3.7034,3.7538,3.7788,3.8191,3.8718,3.9069,3.922,3.9271,3.9572,3.9542,3.918,3.8214,3.6831,3.53,3.4159,3.2819,3.1671,3.1466,3.1683,3.1929,3.1819,3.2057,3.2118,3.1319,3.1133,3.1094,3.0918,3.0898,3.0898,3.0898,3.0898,3.0898,3.0898,3.0898,3.0898,3.0898,3.0898,3.0781,3.0508,3.0723,3.0713,3.0185,3.0595,3.0713,3.0165,3.0586,3.0693,3.0165,3.0332,3.0156,2.9453,2.9258,2.918,2.918,2.8926,2.909,2.9598,2.907,2.909,2.9598,2.9473,2.9707,0.0,0.0,0.0,0.0,0.0,0.0,0.0,0.0,0.0,0.0,0.0,0.0,0.0,0.0,0.0,0.0,0.0,0.0,0.0,0.0,0.0,0.0,0.0,0.0,0.0,0.0,0.0,0.0,0.0,0.0,0.0,3.6405,3.6405,3.6405,3.6405,3.6405,3.6405,3.6405,3.6405,3.6405,3.6405,3.6405,3.6405,3.6405,3.6405,3.6405,3.6405,3.643,3.6507,3.7009,3.7538,3.814,3.8693,3.9245,3.9697,3.9697,3.9697,3.9697,3.9697,3.9336,3.8631,3.7099,3.6208,3.539,3.3421,3.2822,3.2679,3.2264,3.2774,3.3305,3.2571,3.2945,3.3224,3.1989,3.1602,3.1406,3.1035,3.0918,3.0898,3.0898,3.0898,3.0898,3.0898,3.0898,3.0898,3.0898,3.0898,3.0898,3.0898,3.0898,3.0898,3.0898,3.0898,3.0898,3.0898,3.0898,3.0898,3.0898,3.0898,3.0703,3.0273,2.9891,2.9657,2.9657,2.9618,2.9637,2.9715,2.9637,2.9637,2.9735,3.0039,3.0215,0.0,0.0,0.0,0.0,0.0,0.0,0.0,0.0,0.0,0.0,0.0,0.0,0.0,0.0,0.0,0.0,0.0,0.0,0.0,0.0,0.0,0.0,0.0,0.0,0.0,0.0,0.0,0.0,0.0,0.0,3.6405,3.6405,3.6405,3.6405,3.6405,3.6405,3.6405,3.6405,3.6405,0.0,3.6405,3.6405,3.6405,3.6405,3.6405,3.6405,3.6405,3.6632,3.7034,3.716,3.7813,3.8718,3.8843,3.9245,3.9697,3.9697,3.9697,3.9697,3.9697,3.962,3.918,3.721,3.6049,3.503,3.2968,3.2111,3.1761,3.17,3.2045,3.2712,3.3599,3.3424,3.2999,3.3125,3.2306,3.1474,3.1406,3.1133,3.0898,3.0898,3.0898,3.0898,3.0898,3.0898,3.0898,3.0898,3.0898,3.0898,3.0898,3.0898,3.0898,3.0898,3.0898,3.0898,3.0898,3.0898,3.0898,3.0898,3.0898,3.084,3.0742,3.0293,3.0059,3.0059,2.9755,2.995,3.0634,2.9931,2.995,3.0605,3.0332,3.0391,0.0,0.0,0.0,0.0,0.0,0.0,0.0,0.0,0.0,0.0,0.0,0.0,0.0,0.0,0.0,0.0,0.0,0.0,0.0,0.0,0.0,0.0,0.0,0.0,0.0,0.0,0.0,0.0,0.0,3.6405,3.6405,3.6405,3.6405,3.6405,3.6405,3.6405,3.6405,3.6405,3.6405,3.6405,3.6405,3.6405,3.6405,3.6405,3.6405,3.6405,3.6405,3.6557,3.6859,3.7386,3.7914,3.8517,3.907,3.9446,3.9697,3.9697,3.9697,3.9697,3.9697,3.9336,3.8633,3.7099,3.5771,3.4536,3.3215,3.2475,3.2168,3.2383,3.2936,3.3646,3.439,3.4205,3.3866,3.4177,3.2994,3.1719,3.1309,3.1055,3.0898,3.0898,3.0898,3.0957,3.1152,3.1191,3.1191,3.1191,3.1191,3.1191,3.1191,3.1367,3.1534,3.1534,3.1534,3.1534,3.1534,3.1534,3.1534,3.1534,3.1309,3.1191,3.1191,3.0762,3.0527,3.0527,3.0341,3.0458,3.0898,3.0458,3.0458,3.0879,3.0644,3.0762,0.0,0.0,0.0,0.0,0.0,0.0,0.0,0.0,0.0,0.0,0.0,0.0,0.0,0.0,0.0,0.0,0.0,0.0,0.0,0.0,0.0,0.0,0.0,0.0,0.0,0.0,0.0,0.0,0.0,3.6405,3.6405,3.6405,3.6331,3.6256,3.6331,3.6331,3.6256,3.6331,3.6405,3.6405,3.6405,3.6405,3.6405,3.6405,3.6405,3.6405,3.6405,3.6505,3.6733,3.7638,3.8115,3.8391,3.932,3.9697,3.9697,3.9697,3.9697,3.9697,3.9697,3.9076,3.8104,3.687,3.5714,3.4597,3.3767,3.3306,3.3161,3.3672,3.4207,3.4766,3.5263,3.5139,3.4932,3.5005,3.3759,3.2293,3.1348,3.0996,3.0918,3.0996,3.1055,3.1191,3.1465,3.1582,3.1621,3.1621,3.1621,3.1601,3.1494,3.1894,3.2179,3.2101,3.2159,3.2198,3.2198,3.2198,3.2198,3.2198,3.1836,3.1621,3.1621,3.1289,3.1113,3.1113,3.0976,3.0898,3.0898,3.0898,3.0898,3.0898,3.0957,3.1191,0.0,0.0,0.0,0.0,0.0,0.0,0.0,0.0,0.0,0.0,0.0,0.0,0.0,0.0,0.0,0.0,0.0,0.0,0.0,0.0,0.0,0.0,0.0,0.0,0.0,0.0,0.0,0.0,3.6405,3.6405,3.6405,3.6405,3.6155,3.5656,3.613,3.6155,3.5631,3.6155,3.6405,3.6405,3.6405,3.6405,3.6405,3.6405,3.6405,3.6405,3.6405,3.6934,3.7789,3.7939,3.8592,3.9496,3.9647,3.9697,3.9697,3.9697,3.9697,3.9697,3.9697,3.9594,3.9098,3.675,3.6435,3.6561,3.4278,3.383,3.4279,3.5139,3.4533,3.4204,3.6746,3.6166,3.5036,3.5477,3.4795,3.3649,3.2302,3.1436,3.0996,3.1367,3.1738,3.1925,3.1562,3.1836,3.212,3.212,3.212,3.1983,3.1562,3.1894,3.2031,3.1641,3.1983,3.2198,3.2198,3.2198,3.2198,3.2198,3.214,3.212,3.212,3.2061,3.2022,3.2022,3.1269,3.0898,3.0898,3.0898,3.0898,3.0898,3.1269,3.1435,0.0,0.0,0.0,0.0,0.0,0.0,0.0,0.0,0.0,0.0,0.0,0.0,0.0,0.0,0.0,0.0,0.0,0.0,0.0,0.0,0.0,0.0,0.0,0.0,0.0,0.0,0.0,0.0,3.6405,3.6405,3.6405,3.6405,3.6281,3.6006,3.6256,3.6256,3.6006,3.6256,3.6405,3.6405,3.6405,3.6405,3.6405,3.6405,3.6405,3.643,3.6708,3.711,3.7588,3.8241,3.8818,3.9296,3.9572,3.9697,3.9697,3.9697,3.9697,3.9747,4.0049,3.9704,3.9011,3.8217,3.7619,3.7033,3.5915,3.5128,3.4831,3.5818,3.4769,3.4059,3.7019,3.635,3.5108,3.5912,3.5164,3.3963,3.2804,3.2061,3.169,3.1836,3.2226,3.2461,3.2266,3.2383,3.255,3.255,3.255,3.2441,3.2246,3.2617,3.2793,3.2598,3.2754,3.2871,3.2871,3.2871,3.2871,3.2871,3.2656,3.255,3.255,3.2316,3.2198,3.2198,3.1827,3.1484,3.125,3.125,3.1113,3.0898,3.1328,3.1641,0.0,0.0,0.0,0.0,0.0,0.0,0.0,0.0,0.0,0.0,0.0,0.0,0.0,0.0,0.0,0.0,0.0,0.0,0.0,0.0,0.0,0.0,0.0,0.0,0.0,0.0,0.0,0.0,3.6405,3.6405,3.6405,3.6405,3.6331,3.618,3.6306,3.6331,3.618,3.6306,3.6405,3.6405,3.6405,3.6405,3.6381,3.6532,3.6582,3.6631,3.7034,3.7361,3.7713,3.8542,3.8969,3.9145,3.9521,3.9697,3.9697,3.9697,3.9697,3.9772,4.0299,3.9812,3.8969,3.9316,3.8612,3.7625,3.7347,3.6346,3.552,3.6776,3.552,3.4465,3.7413,3.6928,3.5767,3.6288,3.5607,3.4432,3.2953,3.248,3.2316,3.2218,3.2598,3.293,3.2812,3.2891,3.2949,3.2949,3.2949,3.291,3.2812,3.3164,3.3347,3.3281,3.3328,3.3386,3.3386,3.3386,3.3386,3.3386,3.3125,3.2949,3.2949,3.2656,3.248,3.248,3.248,3.2168,3.1494,3.1494,3.1309,3.0898,3.1426,3.1855,0.0,0.0,0.0,0.0,0.0,0.0,0.0,0.0,0.0,0.0,0.0,0.0,0.0,0.0,0.0,0.0,0.0,0.0,0.0,0.0,0.0,0.0,0.0,0.0,0.0,0.0,0.0,0.0,3.6405,3.6405,3.6405,3.6405,3.6155,3.5558,3.6081,3.613,3.5533,3.613,3.6405,3.6405,3.6405,3.6405,3.643,3.6934,3.716,3.716,3.7185,3.7813,3.8818,3.8869,3.9195,3.9647,3.9697,3.9697,3.9697,3.9697,3.9697,3.9772,4.0299,4.0078,3.9477,3.908,3.9091,3.9082,3.8074,3.7089,3.6716,3.8633,3.705,3.549,3.8455,3.8455,3.7443,3.6594,3.6328,3.5556,3.2821,3.25,3.2656,3.2276,3.2832,3.3262,3.2871,3.3125,3.3347,3.3347,3.3347,3.3242,3.2851,3.3164,3.323,3.2871,3.3184,3.3386,3.3386,3.3386,3.3386,3.3386,3.3367,3.3347,3.3347,3.3347,3.3328,3.3328,3.3328,3.2723,3.1494,3.1494,3.1309,3.0918,3.1768,3.2179,0.0,0.0,0.0,0.0,0.0,0.0,0.0,0.0,0.0,0.0,0.0,0.0,0.0,0.0,0.0,0.0,0.0,0.0,0.0,0.0,0.0,0.0,0.0,0.0,0.0,0.0,0.0,0.0,0.0,3.6405,3.6405,3.6405,3.6306,3.6081,3.6281,3.6306,3.6081,3.6281,3.6405,3.6405,3.6405,3.6582,3.6909,3.711,3.7612,3.8291,3.8291,3.8517,3.8919,3.9271,3.9547,3.9697,3.9697,3.9697,3.9697,3.9697,3.9697,3.9823,4.07,4.06,4.0204,4.0781,4.0464,3.9843,3.9451,3.8373,3.7443,3.8156,3.7141,3.6105,3.7171,3.7624,3.7714,3.7382,3.5859,3.4385,3.4021,3.3522,3.3144,3.3008,3.3223,3.3347,3.3223,3.3289,3.3386,3.3386,3.3386,3.3359,3.3223,3.3289,3.3328,3.3203,3.3289,3.3386,3.3386,3.3386,3.3386,3.3386,3.3386,3.3386,3.3386,3.3386,3.3386,3.3386,3.3386,3.3066,3.2344,3.2344,3.2129,3.1749,3.2335,3.2609,0.0,0.0,0.0,0.0,0.0,0.0,0.0,0.0,0.0,0.0,0.0,0.0,0.0,0.0,0.0,0.0,0.0,0.0,0.0,0.0,0.0,0.0,0.0,0.0,0.0,0.0,0.0,0.0,0.0,0.0,3.6405,3.6405,3.6405,3.6405,3.6405,3.6405,3.6405,3.6405,3.6505,3.6658,3.6658,3.6859,3.721,3.7612,3.8065,3.8617,3.8994,3.917,3.9195,3.9546,3.9697,3.9697,3.9697,3.9697,3.9697,3.9697,3.9697,3.9848,4.0926,4.0898,4.0581,4.1745,4.1378,4.0455,4.0252,3.9233,3.8164,3.8276,3.7594,3.6959,3.7292,3.7594,3.7864,3.8074,3.6237,3.4559,3.5067,3.4247,3.3386,3.3386,3.3386,3.3386,3.3386,3.3386,3.3386,3.3386,3.3386,3.3386,3.3386,3.3386,3.3386,3.3386,3.3386,3.3386,3.3386,3.3386,3.3386,3.3386,3.3386,3.3386,3.3386,3.3386,3.3386,3.3386,3.3386,3.3281,3.3008,3.2871,3.2578,3.2218,3.2598,3.2871,0.0,0.0,0.0,0.0,0.0,0.0,0.0,0.0,0.0,0.0,0.0,0.0,0.0,0.0,0.0,0.0,0.0,0.0,0.0,0.0,0.0,0.0,0.0,0.0,0.0,0.0,0.0,0.0,3.6405,3.6405,3.6405,3.6405,3.6405,3.6405,3.6405,3.6405,3.6405,3.6405,3.6658,3.7185,3.7185,3.721,3.7261,3.8366,3.8592,3.8115,3.922,3.9697,3.9697,3.9697,3.9697,3.9697,3.9697,3.9697,3.9722,3.9722,3.9722,3.9898,4.0951,4.095,4.066,4.1773,4.1692,4.1033,4.0397,3.9586,3.8944,3.9197,3.8633,3.8126,3.9101,3.8574,3.7954,3.8707,3.7632,3.6328,3.599,3.4674,3.3513,3.3418,3.3386,3.3386,3.3386,3.3386,3.3386,3.3386,3.3418,3.3418,3.3386,3.3418,3.3418,3.3386,3.3386,3.3386,3.3386,3.3386,3.3386,3.3386,3.3386,3.3386,3.3386,3.3386,3.3386,3.3386,3.3386,3.3386,3.3386,3.3008,3.2628,3.2237,3.2617,3.3027,3.7062,0.0,0.0,0.0,0.0,0.0,0.0,0.0,0.0,0.0,0.0,0.0,0.0,0.0,0.0,0.0,0.0,0.0,0.0,0.0,0.0,0.0,0.0,0.0,0.0,0.0,0.0,0.0,3.6405,3.6405,3.6405,3.6405,3.6405,3.6405,3.6405,3.6405,3.6405,3.6405,3.648,3.6607,3.6607,3.7034,3.7789,3.8115,3.8592,3.9245,3.9546,3.9697,3.9697,3.9697,3.9697,3.9697,3.9697,3.9948,4.03,4.03,4.0524,4.0951,4.1681,4.185,4.1813,4.2513,4.2344,4.1692,4.1062,4.0663,4.0257,3.9233,3.9556,4.0257,4.0542,3.9033,3.794,3.9972,3.8714,3.7339,3.8372,3.7716,3.6194,3.3839,3.3386,3.3386,3.3386,3.3386,3.3386,3.3386,3.4016,3.4235,3.3481,3.4047,3.4204,3.3481,3.3386,3.3386,3.3386,3.3386,3.3386,3.3386,3.3386,3.3386,3.3386,3.3386,3.3386,3.3386,3.3386,3.3386,3.3386,3.3269,3.3184,3.3086,3.3184,3.3289,0.0,0.0,0.0,0.0,0.0,0.0,4.0625,4.0984,4.1493,0.0,0.0,0.0,0.0,0.0,0.0,0.0,0.0,0.0,0.0,0.0,0.0,0.0,0.0,0.0,0.0,3.6531,3.6405,3.6405,3.6405,3.6405,3.6405,3.6405,3.6405,3.6405,3.6405,3.6405,3.6405,3.6405,3.6507,3.6733,3.6733,3.7185,3.8015,3.8266,3.8743,3.9396,3.9597,3.9697,3.9697,3.9697,3.9823,4.0049,4.0049,4.0349,4.0826,4.0826,4.1026,4.1403,4.1984,4.2213,4.2313,4.2838,4.2737,4.2372,4.172,4.1521,4.1263,4.0088,4.0403,4.1091,4.1091,4.0001,3.9334,4.1095,4.0176,3.9098,3.9896,3.9428,3.8134,3.5858,3.5396,3.5325,3.5046,3.5036,3.4943,3.4683,3.5149,3.5149,3.4173,3.4548,3.4517,3.3513,3.3386,3.3386,3.3386,3.3386,3.3386,3.3386,3.3386,3.3386,3.3386,3.3386,3.3386,3.3386,3.3386,3.3386,3.3386,3.3386,3.3386,3.3386,3.3386,3.3386,0.0,0.0,0.0,0.0,0.0,0.0,4.0715,4.0247,4.0008,4.1703,0.0,0.0,0.0,0.0,0.0,0.0,0.0,0.0,0.0,0.0,0.0,0.0,0.0,0.0,3.721,3.6758,3.6457,3.6381,3.6405,3.6405,3.6405,3.6405,3.6405,3.6405,3.6405,3.6405,3.6405,3.6405,3.6632,3.711,3.7185,3.7462,3.8015,3.8617,3.8919,3.9019,3.9471,3.9697,3.9697,3.9697,3.9973,4.0399,4.0474,4.0826,4.1327,4.1378,4.1453,4.1578,4.211,4.2313,4.2389,4.2838,4.3014,4.2902,4.2287,4.2142,4.2057,4.1463,4.132,4.132,4.132,4.1263,4.1378,4.2033,4.1692,4.1153,4.0933,4.0471,3.9809,3.8905,3.8432,3.8015,3.7498,3.7407,3.7188,3.6572,3.6572,3.6288,3.5201,3.517,3.4859,3.3859,3.3639,3.3576,3.3576,3.3449,3.3386,3.3386,3.3386,3.3386,3.3386,3.3386,3.3386,3.3386,3.3386,3.3386,3.3386,3.3386,3.3386,3.3386,3.3386,3.3386,0.0,0.0,0.0,0.0,0.0,0.0,3.9278,3.9619,4.0157,0.0,0.0,0.0,0.0,0.0,0.0,0.0,0.0,0.0,0.0,0.0,0.0,0.0,0.0,0.0,3.7261,3.711,3.6859,3.643,3.6405,3.6405,3.6405,3.6405,3.6405,3.6405,3.6405,3.6405,3.6405,3.6405,3.6431,3.6557,3.6984,3.7462,3.8015,3.8617,3.9145,3.9546,3.9647,3.9697,3.9697,3.9697,3.9747,3.9898,4.035,4.0826,4.1378,4.1831,4.2311,4.2685,4.2813,4.2838,4.2864,4.2964,4.3014,4.2902,4.2287,4.2428,4.279,4.2678,4.2625,4.2625,4.2625,4.2259,4.2061,4.2681,4.2344,4.2033,4.2457,4.2432,4.2291,4.2121,3.996,3.8164,3.8045,3.8015,3.7828,3.7218,3.782,3.7812,3.6319,3.6776,3.6868,3.5921,3.5087,3.461,3.461,3.3859,3.3386,3.3386,3.3386,3.3386,3.3386,3.3386,3.3386,3.3386,3.3386,3.3386,3.3386,3.3386,3.3386,3.3386,3.3386,3.3386,0.0,0.0,0.0,3.932,0.0,0.0,0.0,3.9409,3.9499,3.981,3.99,0.0,0.0,0.0,0.0,0.0,0.0,0.0,0.0,0.0,0.0,0.0,0.0,0.0,3.7613,3.711,3.6683,3.643,3.6405,3.6405,3.6405,3.6405,3.6405,3.6405,3.6658,3.6658,3.6405,3.6658,3.6808,3.6808,3.7085,3.7663,3.8442,3.8768,3.9195,3.9697,3.9697,3.9697,3.9697,3.9697,3.9848,4.0149,4.0675,4.1227,4.1806,4.2386,4.2763,4.3014,4.3014,4.3014,4.3014,4.3014,4.3014,4.2933,4.2625,4.2737,4.3014,4.3014,4.3014,4.3014,4.3014,4.2765,4.2625,4.293,4.2765,4.2625,4.2905,4.3014,4.3014,4.3014,4.17,4.0505,4.0187,4.0158,3.9925,3.9275,3.9621,3.9386,3.7812,3.7992,3.7602,3.5828,3.5201,3.4704,3.4204,3.3702,3.3386,3.3386,3.3386,3.3386,3.3386,3.3386,3.3386,3.3386,3.3386,3.3386,3.3386,3.3386,3.3386,3.3386,3.3386,3.3386,0.0,0.0,0.0,0.0,0.0,3.9499,0.0,0.0,0.0,4.004,0.0,0.0,0.0,0.0,0.0,0.0,0.0,0.0,0.0,0.0,0.0,0.0,0.0,0.0,0.0,3.6959,3.6405,3.6405,3.6405,3.6405,3.6405,3.6505,3.6532,3.6532,3.7085,3.711,3.6557,3.6984,3.721,3.721,3.7287,3.7914,3.8894,3.8994,3.9296,3.9697,3.9697,3.9697,3.9697,3.9697,4.0023,4.0549,4.1102,4.1681,4.2235,4.2788,4.3014,4.2986,4.2849,4.2821,4.2821,4.2821,4.293,4.3014,4.3014,4.3014,4.3014,4.3014,4.3014,4.3014,4.3014,4.3014,4.3014,4.3014,4.3014,4.3014,4.3014,4.3014,4.3014,4.3014,4.3014,4.2874,4.2372,4.2259,4.2061,4.1378,4.1292,4.0808,3.9416,3.898,3.797,3.589,3.518,3.4579,3.3765,3.3513,3.3386,3.3386,3.3386,3.3386,3.3386,3.3386,3.3386,3.3386,3.3386,3.3386,3.3386,3.3496,3.3496,3.3386,3.3386,3.3445,0.0,0.0,0.0,0.0,4.2013,0.0,0.0,0.0,4.0755,3.9725,0.0,0.0,0.0,0.0,0.0,0.0,0.0,0.0,0.0,0.0,0.0,0.0,0.0,0.0,0.0,3.6758,3.6405,3.6405,3.6405,3.6405,3.6405,3.6859,3.711,3.711,3.7638,3.7638,3.711,3.7185,3.721,3.721,3.7688,3.8241,3.8919,3.9371,3.9647,3.9697,3.9697,3.9697,3.9697,3.9697,4.0023,4.0549,4.1102,4.1681,4.2235,4.2788,4.3014,4.293,4.24,4.2203,4.2203,4.2203,4.2569,4.3014,4.3014,4.3014,4.3014,4.3014,4.3014,4.3014,4.3014,4.3014,4.3014,4.3014,4.3014,4.3014,4.3014,4.3014,4.3014,4.3014,4.3014,4.2986,4.293,4.2902,4.2706,4.2057,4.2001,4.172,4.0923,3.965,3.8707,3.8387,3.6267,3.4859,3.4735,3.3922,3.3386,3.3386,3.3386,3.3386,3.3386,3.3386,3.3386,3.3386,3.3386,3.3386,3.3386,3.3809,3.3809,3.3386,3.3386,3.3633,0.0,0.0,0.0,0.0,0.0,0.0,0.0,0.0,4.0772,0.0,0.0,0.0,0.0,0.0,0.0,0.0,0.0,0.0,0.0,0.0,0.0,0.0,0.0,0.0,0.0,0.0,0.0,0.0,3.6507,3.6582,3.5907,3.6408,3.6884,3.721,3.7713,3.7889,3.7663,3.8014,3.819,3.819,3.8391,3.8818,3.9371,3.9597,3.9697,3.9697,3.9697,3.9697,3.9722,4.0049,4.0474,4.1026,4.1605,4.1984,4.2235,4.2788,4.3014,4.293,4.2316,4.2344,4.2625,4.2625,4.2793,4.3014,4.3014,4.3014,4.3014,4.3014,4.3014,4.3014,4.3014,4.3014,4.3014,4.3014,4.3014,4.3014,4.3014,4.3014,4.3014,4.3014,4.3014,4.3014,4.3014,4.3014,4.2902,4.265,4.2622,4.2372,4.1773,4.0779,3.9797,3.8914,3.6998,3.552,3.4953,3.3985,3.3386,3.3386,3.3386,3.3535,3.3789,3.3523,3.3535,3.3789,3.3555,3.3386,3.3386,3.3613,3.3594,3.3406,3.3691,3.3887,4.2541,0.0,0.0,0.0,0.0,0.0,0.0,0.0,0.0,0.0,0.0,0.0,0.0,0.0,0.0,0.0,0.0,0.0,0.0,0.0,0.0,0.0,0.0,0.0,0.0,0.0,0.0,3.5583,3.6433,3.6533,3.5558,3.6207,3.6859,3.7387,3.809,3.8391,3.8241,3.8693,3.8894,3.8894,3.8894,3.9195,3.9697,3.9697,3.9697,3.9697,3.9697,3.9697,3.9747,4.03,4.0826,4.1378,4.1959,4.2313,4.2462,4.2864,4.3014,4.2902,4.2089,4.2118,4.2513,4.2681,4.2849,4.3014,4.3014,4.3014,4.3014,4.3014,4.3014,4.3014,4.3014,4.3014,4.3014,4.3014,4.3014,4.3014,4.3014,4.3014,4.3014,4.3014,4.3014,4.3014,4.3014,4.3014,4.3014,4.3014,4.3014,4.2846,4.2397,4.1406,4.0176,3.8773,3.7058,3.5644,3.4761,3.3887,3.3386,3.3386,3.3386,3.3555,3.3887,3.3711,3.3691,3.3887,3.3691,3.3535,3.3386,3.3535,3.3594,3.3613,3.3809,3.4055,0.0,0.0,0.0,4.3429,0.0,0.0,0.0,0.0,4.1894,0.0,0.0,0.0,0.0,0.0,0.0,0.0,0.0,0.0,0.0,0.0,0.0,0.0,0.0,0.0,0.0,0.0,0.0,3.5583,3.6056,3.6132,3.5533,3.6558,3.7412,3.7965,3.9069,3.9396,3.8869,3.8894,3.8894,3.8894,3.8894,3.9195,3.9697,3.9697,3.9697,3.9697,3.9697,3.9697,3.9747,4.03,4.0826,4.1378,4.1959,4.2512,4.2989,4.2989,4.3014,4.2821,4.1578,4.1148,4.1263,4.1919,4.2513,4.3014,4.3014,4.3014,4.3014,4.3014,4.3014,4.3014,4.3014,4.3014,4.3014,4.3014,4.3014,4.3014,4.3014,4.3014,4.3014,4.3014,4.3014,4.3014,4.3014,4.3014,4.3014,4.3014,4.3014,4.2986,4.2986,4.11,3.934,3.8313,3.6246,3.473,3.4164,3.3672,3.3386,3.3386,3.3386,3.3406,3.3406,3.3828,3.3867,3.3425,3.3848,3.3848,3.3386,3.3848,3.4075,3.4075,3.3633,3.3887,0.0,0.0,4.4147,4.3489,0.0,0.0,0.0,0.0,0.0,0.0,0.0,0.0,0.0,0.0,0.0,0.0,0.0,0.0,0.0,0.0,0.0,0.0,0.0,0.0,0.0,0.0,0.0,3.5079,3.5879,3.5979,3.5029,3.6383,3.7437,3.799,3.8743,3.9245,3.9446,3.9446,3.9446,3.9446,3.9446,3.9521,3.9697,3.9697,3.9697,3.9697,3.9697,3.9898,4.0275,4.08,4.1379,4.1959,4.2512,4.2838,4.3014,4.3014,4.3014,4.2958,4.2513,4.1806,4.1292,4.2344,4.2821,4.3014,4.3014,4.3014,4.3014,4.3014,4.3014,4.3014,4.3014,4.3014,4.3014,4.3014,4.3014,4.3014,4.3014,4.3014,4.3115,4.3463,4.3514,4.3639,4.4016,4.4066,4.394,4.3589,4.384,4.4066,4.4066,4.277,4.1285,3.9877,3.7786,3.5993,3.4718,3.3875,3.3535,3.3828,3.3574,3.3555,3.3848,3.3711,3.3711,3.3848,3.3711,3.3574,3.3386,3.3867,3.4114,3.4114,3.4031,3.4368,4.4407,4.4267,0.0,4.3997,4.3332,0.0,4.1872,0.0,0.0,0.0,0.0,0.0,0.0,0.0,0.0,0.0,0.0,0.0,0.0,0.0,0.0,0.0,0.0,0.0,0.0,0.0,3.623,3.4527,3.5278,3.5479,0.0,0.0,3.7261,3.799,3.8768,3.9346,3.9697,3.9697,3.9697,3.9697,3.9697,3.9697,3.9697,3.9697,3.9697,3.9697,3.9697,3.9998,4.0524,4.1076,4.1656,4.2235,4.2788,4.3014,4.3014,4.3014,4.2709,4.2344,4.2597,4.1976,4.1263,4.234,4.2818,4.3014,4.3014,4.3014,4.3014,4.3014,4.3014,4.3014,4.3014,4.3014,4.3014,4.3014,4.3014,4.3065,4.324,4.3263,4.3438,4.3991,4.4091,4.4192,4.4539,4.4765,4.4744,4.4192,4.419,4.4382,4.456,4.3192,4.1777,4.0631,3.8409,3.6331,3.4739,3.4033,3.3769,3.4095,3.3672,3.3555,3.3828,3.3711,3.3926,3.4564,3.4101,3.3991,3.4303,3.4316,3.4407,3.4551,3.4654,3.4971]}]]